FW7316 Weather Reports


Display with metric or nautical units.
time (UTC)temp
F
wind
direction
speed
MPH
gust
MPH
rain 1hr
in
rain 24hr
in
rain mn
in
humidity
%
barometer
mb
20260904095604 91 137 3.0 10.0 0.00 0.00 0.00 43 1017.6
20260904095407 90 107 4.0 10.0 0.00 0.00 0.00 42 1017.6
20260904095306 90 77 4.0 10.0 0.00 0.00 0.00 42 1017.6
20260904095204 90 96 9.0 10.0 0.00 0.00 0.00 43 1017.7
20260904095107 90 86 3.0 7.0 0.00 0.00 0.00 43 1017.7
20260904095005 90 103 4.0 7.0 0.00 0.00 0.00 43 1017.7
20260904094904 90 128 6.0 7.0 0.00 0.00 0.00 42 1017.7
20260904094807 90 130 4.0 6.0 0.00 0.00 0.00 42 1017.8
20260904094604 90 69 4.0 6.0 0.00 0.00 0.00 43 1017.8
20260904094507 90 28 3.0 6.0 0.00 0.00 0.00 42 1017.8
20260904094404 90 36 3.0 6.0 0.00 0.00 0.00 43 1017.8
20260904094304 90 25 4.0 6.0 0.00 0.00 0.00 41 1017.8
20260904094207 90 30 2.0 6.0 0.00 0.00 0.00 42 1017.8
20260904094004 90 53 4.0 6.0 0.00 0.00 0.00 44 1017.9
20260904093908 90 54 5.0 7.0 0.00 0.00 0.00 44 1017.8
20260904093804 90 157 1.0 5.0 0.00 0.00 0.00 43 1017.9
20260904093704 90 157 0.0 5.0 0.00 0.00 0.00 44 1017.9
20260904093607 90 157 1.0 5.0 0.00 0.00 0.00 44 1017.9
20260904093504 90 132 0.0 5.0 0.00 0.00 0.00 45 1017.9
20260904093404 90 132 3.0 5.0 0.00 0.00 0.00 45 1018.0
20260904093306 89 121 3.0 5.0 0.00 0.00 0.00 46 1018.0
20260904093204 89 119 2.0 5.0 0.00 0.00 0.00 44 1018.0
20260904093104 89 134 2.0 5.0 0.00 0.00 0.00 45 1018.0
20260904093009 89 123 1.0 5.0 0.00 0.00 0.00 45 1018.0
20260904092905 89 30 1.0 5.0 0.00 0.00 0.00 46 1018.0
20260904092804 89 30 0.0 5.0 0.00 0.00 0.00 47 1018.0
20260904092604 88 5 1.0 5.0 0.00 0.00 0.00 47 1018.0
20260904092504 88 5 1.0 5.0 0.00 0.00 0.00 47 1018.0
20260904092407 88 42 4.0 5.0 0.00 0.00 0.00 48 1018.0
20260904092108 88 36 5.0 5.0 0.00 0.00 0.00 48 1018.0
20260904091904 88 186 1.0 5.0 0.00 0.00 0.00 46 1018.0
20260904091807 88 97 0.0 5.0 0.00 0.00 0.00 47 1018.0
20260904091705 88 97 1.0 5.0 0.00 0.00 0.00 46 1018.0
20260904091604 88 97 1.0 5.0 0.00 0.00 0.00 47 1018.0
20260904091508 88 93 2.0 5.0 0.00 0.00 0.00 47 1018.0
20260904091404 88 101 2.0 5.0 0.00 0.00 0.00 47 1018.0
20260904091304 88 119 2.0 5.0 0.00 0.00 0.00 47 1018.0
20260904091207 87 139 2.0 5.0 0.00 0.00 0.00 48 1018.0
20260904091006 87 146 3.0 5.0 0.00 0.00 0.00 49 1018.0
20260904090907 87 109 3.0 5.0 0.00 0.00 0.00 49 1018.0
20260904090804 87 98 3.0 5.0 0.00 0.00 0.00 50 1018.0
20260904090705 87 115 3.0 5.0 0.00 0.00 0.00 49 1018.0
20260904090504 87 188 1.0 5.0 0.00 0.00 0.00 49 1017.9
20260904090307 86 194 3.0 4.0 0.00 0.00 0.00 50 1017.9
20260904090204 86 151 0.0 4.0 0.00 0.00 0.00 49 1017.9
20260904090104 86 151 2.0 4.0 0.00 0.00 0.00 50 1017.9
20260904090013 86 136 1.0 4.0 0.00 0.00 0.00 49 1017.9
20260904085804 86 122 3.0 3.0 0.00 0.00 0.00 50 1018.0
20260904085707 86 144 1.0 5.0 0.00 0.00 0.00 51 1017.9
20260904085604 86 144 1.0 5.0 0.00 0.00 0.00 51 1018.0
20260904085504 86 144 0.0 5.0 0.00 0.00 0.00 50 1018.0
20260904085407 86 144 0.0 5.0 0.00 0.00 0.00 51 1018.0
20260904085306 85 144 1.0 5.0 0.00 0.00 0.00 51 1018.0
20260904085107 85 84 2.0 5.0 0.00 0.00 0.00 51 1018.0
20260904085006 85 84 1.0 5.0 0.00 0.00 0.00 51 1018.0
20260904084904 85 84 1.0 5.0 0.00 0.00 0.00 51 1018.0
20260904084808 85 84 2.0 5.0 0.00 0.00 0.00 51 1018.0
20260904084704 85 84 3.0 5.0 0.00 0.00 0.00 51 1018.0
20260904084604 85 30 3.0 5.0 0.00 0.00 0.00 51 1018.0
20260904084508 85 38 3.0 5.0 0.00 0.00 0.00 53 1018.0
20260904084404 85 54 4.0 5.0 0.00 0.00 0.00 54 1018.0
20260904084304 85 84 3.0 6.0 0.00 0.00 0.00 54 1018.1
20260904084207 84 92 3.0 4.0 0.00 0.00 0.00 55 1018.1
20260904084104 84 57 2.0 5.0 0.00 0.00 0.00 53 1018.2
20260904084005 84 28 2.0 5.0 0.00 0.00 0.00 53 1018.2
20260904083907 84 59 3.0 5.0 0.00 0.00 0.00 53 1018.2
20260904083804 84 5 1.0 5.0 0.00 0.00 0.00 52 1018.2
20260904083704 84 5 0.0 5.0 0.00 0.00 0.00 52 1018.2
20260904083608 84 5 0.0 5.0 0.00 0.00 0.00 52 1018.2
20260904083505 84 5 1.0 5.0 0.00 0.00 0.00 52 1018.2
20260904083405 84 35 3.0 5.0 0.00 0.00 0.00 53 1018.2
20260904083308 84 48 2.0 5.0 0.00 0.00 0.00 52 1018.2
20260904083104 84 40 4.0 5.0 0.00 0.00 0.00 53 1018.2
20260904083009 84 46 5.0 5.0 0.00 0.00 0.00 53 1018.2
20260904082904 84 301 1.0 5.0 0.00 0.00 0.00 54 1018.1
20260904082804 84 71 2.0 5.0 0.00 0.00 0.00 54 1018.1
20260904082505 84 355 0.0 5.0 0.00 0.00 0.00 55 1018.2
20260904082407 84 355 2.0 5.0 0.00 0.00 0.00 55 1018.1
20260904082306 84 355 2.0 5.0 0.00 0.00 0.00 53 1018.1
20260904082204 84 29 3.0 5.0 0.00 0.00 0.00 54 1018.1
20260904082108 84 29 2.0 5.0 0.00 0.00 0.00 55 1018.1
20260904082005 84 66 2.0 5.0 0.00 0.00 0.00 55 1018.1
20260904081905 84 73 3.0 5.0 0.00 0.00 0.00 56 1018.1
20260904081807 84 67 1.0 5.0 0.00 0.00 0.00 54 1018.1
20260904081704 84 81 2.0 5.0 0.00 0.00 0.00 54 1018.1
20260904081604 84 35 1.0 5.0 0.00 0.00 0.00 55 1018.1
20260904081507 83 35 4.0 5.0 0.00 0.00 0.00 54 1018.1
20260904081405 83 360 1.0 5.0 0.00 0.00 0.00 55 1018.1
20260904081304 83 360 2.0 5.0 0.00 0.00 0.00 55 1018.1
20260904081105 83 25 1.0 4.0 0.00 0.00 0.00 56 1018.1
20260904081005 83 25 3.0 4.0 0.00 0.00 0.00 55 1018.1
20260904080907 83 326 4.0 4.0 0.00 0.00 0.00 56 1018.1
20260904080804 83 326 0.0 3.0 0.00 0.00 0.00 56 1018.2
20260904080704 83 326 1.0 3.0 0.00 0.00 0.00 56 1018.1
20260904080608 83 326 3.0 3.0 0.00 0.00 0.00 56 1018.2
20260904080405 83 10 2.0 3.0 0.00 0.00 0.00 56 1018.2
20260904080205 82 10 2.0 4.0 0.00 0.00 0.00 56 1018.2
20260904080117 82 10 1.0 4.0 0.00 0.00 0.00 56 1018.1
20260904080011 82 10 0.0 4.0 0.00 0.00 0.00 56 1018.1
20260904075904 82 10 1.0 4.0 0.00 0.00 0.00 57 1018.1
20260904075804 82 10 1.0 4.0 0.00 0.00 0.00 56 1018.1
20260904075707 82 10 2.0 4.0 0.00 0.00 0.00 57 1018.1
20260904075605 82 10 2.0 6.0 0.00 0.00 0.00 56 1018.2
20260904075409 82 10 1.0 6.0 0.00 0.00 0.00 56 1018.1
20260904075306 82 10 1.0 6.0 0.00 0.00 0.00 57 1018.1
20260904075204 82 10 3.0 6.0 0.00 0.00 0.00 58 1018.2
20260904075107 82 45 1.0 6.0 0.00 0.00 0.00 58 1018.2
20260904075005 81 45 0.0 6.0 0.00 0.00 0.00 57 1018.2
20260904074905 81 45 2.0 6.0 0.00 0.00 0.00 58 1018.1
20260904074705 81 45 3.0 6.0 0.00 0.00 0.00 58 1018.1
20260904074604 81 37 3.0 5.0 0.00 0.00 0.00 57 1018.1
20260904074508 81 360 2.0 5.0 0.00 0.00 0.00 57 1018.1
20260904074305 81 24 1.0 5.0 0.00 0.00 0.00 58 1018.1
20260904074207 81 24 4.0 5.0 0.00 0.00 0.00 59 1018.1
20260904074006 80 5 1.0 5.0 0.00 0.00 0.00 59 1018.1
20260904073907 80 18 1.0 5.0 0.00 0.00 0.00 60 1018.1
20260904073804 80 9 3.0 5.0 0.00 0.00 0.00 60 1018.0
20260904073704 80 360 4.0 5.0 0.00 0.00 0.00 59 1018.1
20260904073607 80 26 3.0 4.0 0.00 0.00 0.00 60 1018.0
20260904073504 80 5 0.0 4.0 0.00 0.00 0.00 60 1018.1
20260904073404 80 5 3.0 4.0 0.00 0.00 0.00 60 1018.1
20260904073307 80 19 2.0 4.0 0.00 0.00 0.00 59 1018.1
20260904073204 80 338 1.0 4.0 0.00 0.00 0.00 61 1018.1
20260904073104 80 331 2.0 4.0 0.00 0.00 0.00 61 1018.1
20260904073009 79 334 3.0 4.0 0.00 0.00 0.00 62 1018.1
20260904072904 79 41 1.0 2.0 0.00 0.00 0.00 62 1018.1
20260904072804 79 41 1.0 2.0 0.00 0.00 0.00 62 1018.1
20260904072605 79 40 0.0 2.0 0.00 0.00 0.00 61 1018.1
20260904072504 79 41 0.0 2.0 0.00 0.00 0.00 62 1018.1
20260904072407 79 40 0.0 2.0 0.00 0.00 0.00 62 1018.1
20260904072306 79 41 2.0 2.0 0.00 0.00 0.00 62 1018.1
20260904072204 79 40 0.0 2.0 0.00 0.00 0.00 62 1018.1
20260904072107 79 40 1.0 2.0 0.00 0.00 0.00 62 1018.1
20260904072005 79 40 2.0 2.0 0.00 0.00 0.00 63 1018.1
20260904071807 78 41 0.0 2.0 0.00 0.00 0.00 63 1018.1
20260904071704 78 41 0.0 2.0 0.00 0.00 0.00 65 1018.0
20260904071508 78 41 1.0 2.0 0.00 0.00 0.00 64 1018.0
20260904071305 78 41 1.0 3.0 0.00 0.00 0.00 65 1018.0
20260904071206 77 41 1.0 3.0 0.00 0.00 0.00 64 1018.0
20260904071104 77 41 1.0 3.0 0.00 0.00 0.00 64 1018.0
20260904071005 77 41 0.0 3.0 0.00 0.00 0.00 64 1018.0
20260904070908 77 41 1.0 3.0 0.00 0.00 0.00 64 1018.1
20260904070804 77 41 0.0 3.0 0.00 0.00 0.00 65 1018.1
20260904070704 77 41 1.0 3.0 0.00 0.00 0.00 66 1018.1
20260904070607 77 41 0.0 3.0 0.00 0.00 0.00 66 1018.1
20260904070504 76 41 0.0 3.0 0.00 0.00 0.00 66 1018.1
20260904070404 76 40 2.0 3.0 0.00 0.00 0.00 67 1018.1
20260904070307 76 41 3.0 3.0 0.00 0.00 0.00 67 1018.1
20260904070204 76 41 2.0 3.0 0.00 0.00 0.00 67 1018.0
20260904070104 76 41 0.0 3.0 0.00 0.00 0.00 68 1018.0
20260904070012 75 41 1.0 4.0 0.00 0.00 0.00 68 1018.0
20260904065904 75 41 0.0 4.0 0.00 0.00 0.00 67 1017.9
20260904065805 75 41 0.0 4.0 0.00 0.00 0.00 67 1017.9
20260904065707 75 41 0.0 4.0 0.00 0.00 0.00 67 1017.9
20260904065604 75 41 1.0 4.0 0.00 0.00 0.00 67 1017.9
20260904065505 75 41 2.0 4.0 0.00 0.00 0.00 68 1017.9
20260904065407 75 41 1.0 4.0 0.00 0.00 0.00 68 1017.9
20260904065306 75 41 2.0 4.0 0.00 0.00 0.00 68 1017.9
20260904065107 75 41 3.0 4.0 0.00 0.00 0.00 68 1017.9
20260904065005 75 41 3.0 4.0 0.00 0.00 0.00 68 1017.9
20260904064905 75 40 2.0 4.0 0.00 0.00 0.00 69 1017.9
20260904064605 75 41 2.0 4.0 0.00 0.00 0.00 69 1017.9
20260904064405 74 41 1.0 4.0 0.00 0.00 0.00 69 1017.9
20260904064304 74 40 3.0 4.0 0.00 0.00 0.00 70 1017.9
20260904064105 74 40 4.0 4.0 0.00 0.00 0.00 70 1017.9
20260904064005 74 40 3.0 4.0 0.00 0.00 0.00 70 1017.9
20260904063907 74 40 2.0 4.0 0.00 0.00 0.00 70 1017.9
20260904063804 74 41 3.0 4.0 0.00 0.00 0.00 71 1017.9
20260904063704 74 41 2.0 4.0 0.00 0.00 0.00 71 1017.9
20260904063504 73 41 3.0 4.0 0.00 0.00 0.00 71 1017.9
20260904063404 73 41 1.0 4.0 0.00 0.00 0.00 72 1017.9
20260904063205 73 55 4.0 4.0 0.00 0.00 0.00 73 1017.9
20260904063104 73 41 1.0 4.0 0.00 0.00 0.00 73 1017.9
20260904063008 73 41 1.0 4.0 0.00 0.00 0.00 72 1017.9
20260904062904 73 41 1.0 4.0 0.00 0.00 0.00 72 1017.9
20260904062804 73 41 2.0 4.0 0.00 0.00 0.00 73 1017.9
20260904062707 72 41 3.0 4.0 0.00 0.00 0.00 73 1017.8
20260904062604 72 41 3.0 5.0 0.00 0.00 0.00 74 1017.8
20260904062504 72 41 1.0 5.0 0.00 0.00 0.00 74 1017.8
20260904062306 72 41 1.0 5.0 0.00 0.00 0.00 74 1017.8
20260904062204 72 41 3.0 5.0 0.00 0.00 0.00 74 1017.8
20260904062107 72 41 4.0 5.0 0.00 0.00 0.00 74 1017.8
20260904062006 72 41 2.0 5.0 0.00 0.00 0.00 75 1017.8
20260904061807 71 32 2.0 5.0 0.00 0.00 0.00 75 1017.8
20260904061705 71 46 4.0 5.0 0.00 0.00 0.00 75 1017.8
20260904061604 71 41 3.0 5.0 0.00 0.00 0.00 75 1017.8
20260904061507 71 30 4.0 5.0 0.00 0.00 0.00 76 1017.8
20260904061404 71 46 2.0 5.0 0.00 0.00 0.00 76 1017.8
20260904061304 70 46 3.0 5.0 0.00 0.00 0.00 77 1017.7
20260904061206 70 46 4.0 5.0 0.00 0.00 0.00 77 1017.7
20260904061107 70 46 3.0 5.0 0.00 0.00 0.00 77 1017.7
20260904061006 70 46 3.0 5.0 0.00 0.00 0.00 77 1017.7
20260904060907 70 46 3.0 5.0 0.00 0.00 0.00 78 1017.7
20260904060704 69 46 4.0 4.0 0.00 0.00 0.00 79 1017.7
20260904060607 69 46 3.0 4.0 0.00 0.00 0.00 80 1017.6
20260904060310 68 66 2.0 4.0 0.00 0.00 0.00 82 1017.6
20260904060204 68 66 2.0 4.0 0.00 0.00 0.00 83 1017.6
20260904060117 68 49 3.0 4.0 0.00 0.00 0.00 85 1017.6
20260904060011 68 49 3.0 4.0 0.00 0.00 0.00 85 1017.6
20260904055904 67 49 2.0 4.0 0.00 0.00 0.00 86 1017.6
20260904055804 67 49 3.0 4.0 0.00 0.00 0.00 87 1017.6
20260904055707 67 63 1.0 4.0 0.00 0.00 0.00 88 1017.6
20260904055504 66 47 2.0 4.0 0.00 0.00 0.00 90 1017.6
20260904055306 65 47 2.0 3.0 0.00 0.00 0.00 91 1017.6
20260904055107 65 322 2.0 2.0 0.00 0.00 0.00 93 1017.5
20260904055006 65 287 2.0 2.0 0.00 0.00 0.00 93 1017.5
20260904054903 64 287 2.0 2.0 0.00 0.00 0.00 93 1017.5
20260904054707 64 287 1.0 2.0 0.00 0.00 0.00 93 1017.5
20260904054604 64 287 0.0 2.0 0.00 0.00 0.00 93 1017.5
20260904054507 63 287 1.0 2.0 0.00 0.00 0.00 93 1017.5
20260904054207 63 287 2.0 3.0 0.00 0.00 0.00 93 1017.5
20260904054104 63 287 2.0 3.0 0.00 0.00 0.00 93 1017.5
20260904054004 63 287 2.0 3.0 0.00 0.00 0.00 93 1017.5
20260904053908 63 287 2.0 3.0 0.00 0.00 0.00 93 1017.5
20260904053703 63 287 0.0 3.0 0.00 0.00 0.00 93 1017.5
20260904053506 62 287 1.0 3.0 0.00 0.00 0.00 93 1017.5
20260904053404 62 287 1.0 3.0 0.00 0.00 0.00 93 1017.5
20260904053204 62 287 3.0 4.0 0.00 0.00 0.00 93 1017.5
20260904053104 62 287 2.0 4.0 0.00 0.00 0.00 93 1017.5
20260904052905 62 287 3.0 4.0 0.00 0.00 0.00 93 1017.4
20260904052706 62 287 2.0 4.0 0.00 0.00 0.00 92 1017.5
20260904052604 62 287 2.0 4.0 0.00 0.00 0.00 93 1017.5
20260904052504 61 287 2.0 4.0 0.00 0.00 0.00 93 1017.5
20260904052408 61 287 1.0 4.0 0.00 0.00 0.00 93 1017.4
20260904052306 61 287 2.0 4.0 0.00 0.00 0.00 93 1017.4
20260904052203 61 287 2.0 3.0 0.00 0.00 0.00 93 1017.4
20260904052005 61 287 2.0 3.0 0.00 0.00 0.00 93 1017.4
20260904051904 61 291 3.0 3.0 0.00 0.00 0.00 93 1017.4
20260904051807 61 293 2.0 3.0 0.00 0.00 0.00 93 1017.4
20260904051705 61 223 2.0 3.0 0.00 0.00 0.00 93 1017.4
20260904051603 61 223 2.0 3.0 0.00 0.00 0.00 93 1017.4
20260904051507 61 223 2.0 3.0 0.00 0.00 0.00 93 1017.4
20260904051404 61 223 2.0 3.0 0.00 0.00 0.00 93 1017.4
20260904051304 61 223 2.0 3.0 0.00 0.00 0.00 93 1017.4
20260904051206 61 223 2.0 3.0 0.00 0.00 0.00 93 1017.4
20260904051104 61 223 1.0 3.0 0.00 0.00 0.00 93 1017.4
20260904051005 61 223 2.0 3.0 0.00 0.00 0.00 93 1017.3
20260904050908 61 223 2.0 3.0 0.00 0.00 0.00 93 1017.4
20260904050804 61 223 2.0 3.0 0.00 0.00 0.00 93 1017.3
20260904050706 61 223 2.0 3.0 0.00 0.00 0.00 93 1017.3
20260904050607 60 223 1.0 3.0 0.00 0.00 0.00 93 1017.3
20260904050504 60 223 2.0 3.0 0.00 0.00 0.00 93 1017.3
20260904050404 60 223 1.0 3.0 0.00 0.00 0.00 93 1017.3
20260904050307 60 223 1.0 3.0 0.00 0.00 0.00 93 1017.3
20260904050204 60 223 1.0 3.0 0.00 0.00 0.00 92 1017.3
20260904050104 60 223 1.0 3.0 0.00 0.00 0.00 92 1017.3
20260904050010 60 223 2.0 3.0 0.00 0.00 0.00 92 1017.3
20260904045904 60 223 2.0 3.0 0.00 0.00 0.00 92 1017.3
20260904045504 60 223 2.0 3.0 0.00 0.00 0.00 92 1017.3
20260904045408 60 223 2.0 3.0 0.00 0.00 0.00 92 1017.3
20260904045307 60 223 2.0 3.0 0.00 0.00 0.00 92 1017.2
20260904045204 60 223 1.0 3.0 0.00 0.00 0.00 92 1017.2
20260904045108 60 223 2.0 3.0 0.00 0.00 0.00 92 1017.2
20260904044807 60 223 2.0 2.0 0.00 0.00 0.00 92 1017.2
20260904044704 60 223 1.0 2.0 0.00 0.00 0.00 92 1017.2
20260904044604 60 223 1.0 2.0 0.00 0.00 0.00 92 1017.2
20260904044507 60 223 1.0 2.0 0.00 0.00 0.00 92 1017.2
20260904044404 60 223 1.0 2.0 0.00 0.00 0.00 92 1017.2
20260904044304 60 223 0.0 3.0 0.00 0.00 0.00 92 1017.2
20260904044207 60 223 0.0 3.0 0.00 0.00 0.00 92 1017.2
20260904044005 60 223 1.0 3.0 0.00 0.00 0.00 92 1017.3
20260904043907 60 223 2.0 3.0 0.00 0.00 0.00 92 1017.3
20260904043704 60 223 2.0 3.0 0.00 0.00 0.00 92 1017.3
20260904043608 60 223 2.0 3.0 0.00 0.00 0.00 92 1017.3
20260904043504 60 223 2.0 3.0 0.00 0.00 0.00 92 1017.3
20260904043404 60 223 2.0 3.0 0.00 0.00 0.00 92 1017.3
20260904043307 60 223 2.0 3.0 0.00 0.00 0.00 92 1017.3
20260904043204 60 223 2.0 3.0 0.00 0.00 0.00 92 1017.2
20260904042804 60 223 1.0 2.0 0.00 0.00 0.00 92 1017.2
20260904042706 60 223 2.0 2.0 0.00 0.00 0.00 92 1017.3
20260904042604 60 223 1.0 2.0 0.00 0.00 0.00 92 1017.2
20260904042504 60 223 2.0 2.0 0.00 0.00 0.00 92 1017.2
20260904042406 60 223 1.0 2.0 0.00 0.00 0.00 92 1017.2
20260904042306 60 223 2.0 2.0 0.00 0.00 0.00 92 1017.2
20260904041904 60 223 1.0 2.0 0.00 0.00 0.00 92 1017.2
20260904041807 60 223 2.0 2.0 0.00 0.00 0.00 92 1017.2
20260904041704 60 223 2.0 3.0 0.00 0.00 0.00 92 1017.1
20260904041604 60 223 2.0 3.0 0.00 0.00 0.00 92 1017.1
20260904041507 60 223 1.0 3.0 0.00 0.00 0.00 92 1017.1
20260904041404 60 223 1.0 3.0 0.00 0.00 0.00 92 1017.1
20260904041304 60 223 0.0 3.0 0.00 0.00 0.00 92 1017.0
20260904041105 60 223 2.0 3.0 0.00 0.00 0.00 92 1017.0
20260904041006 60 223 1.0 3.0 0.00 0.00 0.00 92 1017.1
20260904040906 60 223 1.0 3.0 0.00 0.00 0.00 92 1017.0
20260904040804 60 223 1.0 3.0 0.00 0.00 0.00 92 1017.1
20260904040704 60 223 3.0 3.0 0.00 0.00 0.00 92 1017.1
20260904040606 60 223 2.0 3.0 0.00 0.00 0.00 92 1017.1
20260904040505 60 223 2.0 3.0 0.00 0.00 0.00 92 1017.1
20260904040405 60 223 2.0 3.0 0.00 0.00 0.00 92 1017.1
20260904040306 60 223 2.0 3.0 0.00 0.00 0.00 91 1017.1
20260904040204 60 223 2.0 2.0 0.00 0.00 0.00 91 1017.1
20260904040011 60 223 1.0 1.0 0.00 0.00 0.00 91 1017.1
20260904035904 60 223 0.0 1.0 0.00 0.00 0.00 91 1017.1
20260904035805 60 223 0.0 1.0 0.00 0.00 0.00 91 1017.1
20260904035707 60 223 0.0 1.0 0.00 0.00 0.00 92 1017.1
20260904035604 60 223 0.0 1.0 0.00 0.00 0.00 91 1017.1
20260904035504 60 223 0.0 1.0 0.00 0.00 0.00 91 1017.1
20260904035407 60 223 0.0 1.0 0.00 0.00 0.00 91 1017.1
20260904035306 60 223 0.0 1.0 0.00 0.00 0.00 91 1017.1
20260904035204 60 223 0.0 2.0 0.00 0.00 0.00 91 1017.1
20260904035107 61 223 1.0 2.0 0.00 0.00 0.00 91 1017.1
20260904035005 61 223 0.0 2.0 0.00 0.00 0.00 91 1017.1
20260904034903 61 223 0.0 2.0 0.00 0.00 0.00 91 1017.1
20260904034807 61 223 0.0 2.0 0.00 0.00 0.00 91 1017.0
20260904034704 61 223 0.0 2.0 0.00 0.00 0.00 91 1017.0
20260904034604 61 223 0.0 2.0 0.00 0.00 0.00 91 1017.1
20260904034507 61 223 0.0 2.0 0.00 0.00 0.00 91 1017.1
20260904034404 61 223 0.0 2.0 0.00 0.00 0.00 91 1017.0
20260904034004 61 223 0.0 2.0 0.00 0.00 0.00 91 1017.0
20260904033907 61 223 1.0 2.0 0.00 0.00 0.00 91 1016.9
20260904033804 61 223 1.0 2.0 0.00 0.00 0.00 91 1016.9
20260904033704 61 223 1.0 2.0 0.00 0.00 0.00 91 1016.9
20260904033404 61 223 2.0 2.0 0.00 0.00 0.00 91 1016.9
20260904033307 61 223 2.0 2.0 0.00 0.00 0.00 91 1016.9
20260904033205 61 223 2.0 2.0 0.00 0.00 0.00 91 1016.9
20260904033104 61 223 2.0 2.0 0.00 0.00 0.00 91 1016.9
20260904033008 61 223 1.0 2.0 0.00 0.00 0.00 91 1016.9
20260904032804 61 223 2.0 2.0 0.00 0.00 0.00 91 1016.9
20260904032706 61 223 2.0 2.0 0.00 0.00 0.00 91 1016.9
20260904032604 61 223 1.0 2.0 0.00 0.00 0.00 91 1016.9
20260904032505 61 223 2.0 2.0 0.00 0.00 0.00 91 1016.8
20260904032406 61 223 0.0 1.0 0.00 0.00 0.00 91 1016.8
20260904032305 61 223 0.0 1.0 0.00 0.00 0.00 91 1016.9
20260904032107 61 223 0.0 0.0 0.00 0.00 0.00 91 1016.8
20260904032004 61 223 0.0 0.0 0.00 0.00 0.00 91 1016.8
20260904031904 61 223 0.0 0.0 0.00 0.00 0.00 91 1016.8
20260904031806 61 223 0.0 0.0 0.00 0.00 0.00 91 1016.8
20260904031704 61 223 0.0 0.0 0.00 0.00 0.00 91 1016.8
20260904031604 61 223 0.0 1.0 0.00 0.00 0.00 91 1016.8
20260904031507 61 223 0.0 2.0 0.00 0.00 0.00 91 1016.8
20260904031404 61 223 0.0 2.0 0.00 0.00 0.00 91 1016.8
20260904031304 61 223 0.0 2.0 0.00 0.00 0.00 91 1016.8
20260904031103 61 223 0.0 2.0 0.00 0.00 0.00 91 1016.8
20260904031004 61 223 0.0 2.0 0.00 0.00 0.00 91 1016.8
20260904030804 61 223 0.0 2.0 0.00 0.00 0.00 91 1016.8
20260904030704 61 223 0.0 2.0 0.00 0.00 0.00 91 1016.7
20260904030608 61 223 0.0 2.0 0.00 0.00 0.00 91 1016.7
20260904030504 61 223 0.0 2.0 0.00 0.00 0.00 91 1016.7
20260904030405 61 223 0.0 1.0 0.00 0.00 0.00 91 1016.7
20260904030307 61 223 0.0 2.0 0.00 0.00 0.00 91 1016.7
20260904030205 61 223 0.0 2.0 0.00 0.00 0.00 91 1016.7
20260904030012 61 223 0.0 2.0 0.00 0.00 0.00 91 1016.7
20260904025904 61 223 0.0 2.0 0.00 0.00 0.00 91 1016.7
20260904025804 61 223 0.0 2.0 0.00 0.00 0.00 91 1016.7
20260904025706 61 223 1.0 2.0 0.00 0.00 0.00 91 1016.7
20260904025604 61 223 1.0 2.0 0.00 0.00 0.00 91 1016.7
20260904025504 61 223 1.0 2.0 0.00 0.00 0.00 91 1016.7
20260904025409 61 223 1.0 2.0 0.00 0.00 0.00 91 1016.7
20260904025205 61 223 2.0 2.0 0.00 0.00 0.00 91 1016.8
20260904025107 61 223 1.0 2.0 0.00 0.00 0.00 91 1016.7
20260904025004 61 223 0.0 1.0 0.00 0.00 0.00 91 1016.7
20260904024904 61 223 0.0 1.0 0.00 0.00 0.00 91 1016.7
20260904024807 61 223 1.0 1.0 0.00 0.00 0.00 91 1016.7
20260904024705 61 223 1.0 1.0 0.00 0.00 0.00 91 1016.7
20260904024507 61 223 0.0 0.0 0.00 0.00 0.00 91 1016.8
20260904024404 61 223 0.0 0.0 0.00 0.00 0.00 91 1016.8
20260904024207 61 223 0.0 0.0 0.00 0.00 0.00 91 1016.7
20260904024104 61 223 0.0 0.0 0.00 0.00 0.00 91 1016.8
20260904024004 61 223 0.0 0.0 0.00 0.00 0.00 91 1016.8
20260904023907 61 223 0.0 0.0 0.00 0.00 0.00 91 1016.8
20260904023804 61 223 0.0 1.0 0.00 0.00 0.00 91 1016.8
20260904023704 61 223 0.0 1.0 0.00 0.00 0.00 91 1016.8
20260904023610 61 223 0.0 2.0 0.00 0.00 0.00 91 1016.8
20260904023404 61 223 0.0 2.0 0.00 0.00 0.00 91 1016.9
20260904023306 61 223 0.0 2.0 0.00 0.00 0.00 91 1016.8
20260904023204 61 223 0.0 2.0 0.00 0.00 0.00 91 1016.8
20260904023104 61 223 0.0 2.0 0.00 0.00 0.00 90 1016.8
20260904023008 61 223 0.0 2.0 0.00 0.00 0.00 90 1016.8
20260904022905 61 223 0.0 2.0 0.00 0.00 0.00 90 1016.9
20260904022804 61 223 0.0 2.0 0.00 0.00 0.00 90 1016.9
20260904022706 61 223 1.0 2.0 0.00 0.00 0.00 90 1016.9
20260904022604 61 223 1.0 3.0 0.00 0.00 0.00 90 1016.9
20260904022505 61 223 1.0 3.0 0.00 0.00 0.00 90 1016.8
20260904022306 61 223 0.0 3.0 0.00 0.00 0.00 90 1016.8
20260904022204 61 223 1.0 3.0 0.00 0.00 0.00 90 1016.8
20260904022106 61 223 2.0 3.0 0.00 0.00 0.00 90 1016.8
20260904022004 61 223 2.0 3.0 0.00 0.00 0.00 90 1016.8
20260904021808 61 223 1.0 3.0 0.00 0.00 0.00 90 1016.8
20260904021704 61 223 1.0 3.0 0.00 0.00 0.00 90 1016.7
20260904021604 61 223 3.0 3.0 0.00 0.00 0.00 90 1016.7
20260904021506 61 223 2.0 3.0 0.00 0.00 0.00 90 1016.7
20260904021404 61 223 3.0 4.0 0.00 0.00 0.00 90 1016.7
20260904021304 61 223 2.0 4.0 0.00 0.00 0.00 90 1016.7
20260904021208 61 223 2.0 4.0 0.00 0.00 0.00 90 1016.7
20260904021104 61 223 2.0 4.0 0.00 0.00 0.00 90 1016.7
20260904021007 61 223 3.0 4.0 0.00 0.00 0.00 90 1016.7
20260904020905 61 223 1.0 4.0 0.00 0.00 0.00 90 1016.7
20260904020704 61 223 3.0 4.0 0.00 0.00 0.00 90 1016.7
20260904020604 61 223 3.0 4.0 0.00 0.00 0.00 90 1016.8
20260904020507 61 223 3.0 4.0 0.00 0.00 0.00 90 1016.7
20260904020404 61 223 3.0 4.0 0.00 0.00 0.00 90 1016.7
20260904020304 61 223 3.0 3.0 0.00 0.00 0.00 90 1016.7
20260904020206 61 223 3.0 3.0 0.00 0.00 0.00 90 1016.7
20260904020117 61 223 1.0 2.0 0.00 0.00 0.00 90 1016.7
20260904020008 61 223 1.0 2.0 0.00 0.00 0.00 90 1016.7
20260904015907 62 223 2.0 2.0 0.00 0.00 0.00 90 1016.8
20260904015805 62 223 2.0 2.0 0.00 0.00 0.00 90 1016.8
20260904015704 62 223 1.0 2.0 0.00 0.00 0.00 90 1016.7
20260904015607 62 223 2.0 2.0 0.00 0.00 0.00 90 1016.7
20260904015505 62 223 2.0 2.0 0.00 0.00 0.00 90 1016.7
20260904015404 62 223 1.0 2.0 0.00 0.00 0.00 90 1016.8
20260904015307 62 223 2.0 3.0 0.00 0.00 0.00 90 1016.8
20260904015204 62 223 2.0 3.0 0.00 0.00 0.00 90 1016.8
20260904015104 62 223 1.0 3.0 0.00 0.00 0.00 90 1016.8
20260904015007 62 223 1.0 3.0 0.00 0.00 0.00 90 1016.8
20260904014905 62 223 1.0 3.0 0.00 0.00 0.00 90 1016.8
20260904014805 62 223 2.0 3.0 0.00 0.00 0.00 90 1016.8
20260904014706 62 223 2.0 3.0 0.00 0.00 0.00 90 1016.8
20260904014604 62 223 2.0 3.0 0.00 0.00 0.00 90 1016.8
20260904014407 62 223 2.0 3.0 0.00 0.00 0.00 90 1016.8
20260904014304 62 223 2.0 3.0 0.00 0.00 0.00 90 1016.8
20260904014205 62 223 2.0 2.0 0.00 0.00 0.00 90 1016.9
20260904014107 62 223 1.0 2.0 0.00 0.00 0.00 90 1016.9
20260904014005 62 223 2.0 2.0 0.00 0.00 0.00 90 1016.9
20260904013904 62 223 0.0 2.0 0.00 0.00 0.00 89 1016.9
20260904013806 62 223 1.0 2.0 0.00 0.00 0.00 89 1016.8
20260904013704 62 223 1.0 2.0 0.00 0.00 0.00 90 1016.8
20260904013404 62 223 1.0 2.0 0.00 0.00 0.00 90 1016.7
20260904013305 62 223 1.0 2.0 0.00 0.00 0.00 89 1016.8
20260904013207 62 223 0.0 1.0 0.00 0.00 0.00 90 1016.7
20260904013104 62 223 0.0 1.0 0.00 0.00 0.00 90 1016.8
20260904013007 62 223 0.0 1.0 0.00 0.00 0.00 89 1016.8
20260904012804 62 223 0.0 1.0 0.00 0.00 0.00 90 1016.8
20260904012704 62 223 0.0 1.0 0.00 0.00 0.00 89 1016.8
20260904012607 62 223 1.0 1.0 0.00 0.00 0.00 89 1016.8
20260904012504 62 223 0.0 1.0 0.00 0.00 0.00 89 1016.8
20260904012405 62 223 0.0 1.0 0.00 0.00 0.00 89 1016.8
20260904012307 62 223 0.0 1.0 0.00 0.00 0.00 89 1016.8
20260904012204 62 223 1.0 1.0 0.00 0.00 0.00 89 1016.8
20260904012104 62 223 0.0 1.0 0.00 0.00 0.00 89 1016.8
20260904012007 62 223 1.0 1.0 0.00 0.00 0.00 89 1016.8
20260904011904 62 223 0.0 1.0 0.00 0.00 0.00 89 1016.8
20260904011804 62 223 0.0 1.0 0.00 0.00 0.00 89 1016.8
20260904011706 62 223 1.0 1.0 0.00 0.00 0.00 89 1016.8
20260904011504 62 223 0.0 0.0 0.00 0.00 0.00 89 1016.8
20260904011406 62 223 0.0 1.0 0.00 0.00 0.00 89 1016.8
20260904011205 62 223 0.0 2.0 0.00 0.00 0.00 89 1016.8
20260904011107 62 223 0.0 2.0 0.00 0.00 0.00 89 1016.8
20260904010904 62 223 0.0 2.0 0.00 0.00 0.00 89 1016.8
20260904010806 62 223 0.0 2.0 0.00 0.00 0.00 89 1016.8
20260904010704 62 223 0.0 2.0 0.00 0.00 0.00 89 1016.9
20260904010604 62 223 0.0 3.0 0.00 0.00 0.00 89 1016.8
20260904010507 62 223 0.0 3.0 0.00 0.00 0.00 89 1016.8
20260904010404 62 223 0.0 3.0 0.00 0.00 0.00 89 1016.9
20260904010304 62 223 1.0 4.0 0.00 0.00 0.00 89 1016.9
20260904010206 62 223 1.0 4.0 0.00 0.00 0.00 89 1016.8
20260904010104 62 223 1.0 4.0 0.00 0.00 0.00 89 1016.8
20260904010007 62 223 0.0 4.0 0.00 0.00 0.00 89 1016.8
20260904005704 62 223 2.0 4.0 0.00 0.00 0.00 89 1016.9
20260904005504 62 223 3.0 4.0 0.00 0.00 0.00 89 1016.8
20260904005404 62 223 3.0 4.0 0.00 0.00 0.00 89 1016.8
20260904005307 62 223 3.0 4.0 0.00 0.00 0.00 89 1016.8
20260904005204 62 223 4.0 4.0 0.00 0.00 0.00 89 1016.8
20260904005008 62 223 4.0 4.0 0.00 0.00 0.00 89 1016.8
20260904004904 62 223 3.0 4.0 0.00 0.00 0.00 89 1016.8
20260904004804 62 254 4.0 4.0 0.00 0.00 0.00 89 1016.8
20260904004707 62 254 3.0 3.0 0.00 0.00 0.00 89 1016.8
20260904004604 62 254 2.0 3.0 0.00 0.00 0.00 89 1016.8
20260904004504 62 254 3.0 3.0 0.00 0.00 0.00 89 1016.9
20260904004305 62 254 2.0 3.0 0.00 0.00 0.00 89 1016.9
20260904004204 62 254 3.0 3.0 0.00 0.00 0.00 89 1016.9
20260904004106 62 254 2.0 3.0 0.00 0.00 0.00 89 1016.9
20260904004005 62 254 2.0 2.0 0.00 0.00 0.00 89 1016.9
20260904003904 62 254 1.0 2.0 0.00 0.00 0.00 89 1016.9
20260904003807 62 254 1.0 2.0 0.00 0.00 0.00 89 1017.0
20260904003604 62 254 1.0 2.0 0.00 0.00 0.00 89 1017.0
20260904003507 62 254 2.0 3.0 0.00 0.00 0.00 89 1017.0
20260904003404 62 254 1.0 3.0 0.00 0.00 0.00 89 1017.0
20260904003304 62 254 1.0 3.0 0.00 0.00 0.00 88 1017.0
20260904003206 62 254 1.0 3.0 0.00 0.00 0.00 88 1017.0
20260904003104 62 254 0.0 3.0 0.00 0.00 0.00 88 1017.0
20260904003005 62 254 1.0 3.0 0.00 0.00 0.00 88 1017.1
20260904002804 62 254 1.0 3.0 0.00 0.00 0.00 89 1017.0
20260904002704 62 254 2.0 3.0 0.00 0.00 0.00 89 1017.0
20260904002609 62 254 2.0 3.0 0.00 0.00 0.00 89 1017.1
20260904002504 62 254 2.0 3.0 0.00 0.00 0.00 89 1017.1
20260904002306 62 254 3.0 3.0 0.00 0.00 0.00 88 1017.1
20260904002204 62 254 2.0 3.0 0.00 0.00 0.00 88 1017.1
20260904002104 62 254 2.0 3.0 0.00 0.00 0.00 88 1017.1
20260904002007 62 254 2.0 3.0 0.00 0.00 0.00 88 1017.1
20260904001905 62 254 2.0 3.0 0.00 0.00 0.00 88 1017.1
20260904001804 62 254 2.0 3.0 0.00 0.00 0.00 89 1017.1
20260904001707 62 254 2.0 2.0 0.00 0.00 0.00 88 1017.1
20260904001605 62 254 1.0 2.0 0.00 0.00 0.00 88 1017.1
20260904001406 62 254 1.0 1.0 0.00 0.00 0.00 88 1017.2
20260904001304 62 254 1.0 1.0 0.00 0.00 0.00 88 1017.2
20260904001204 62 254 1.0 1.0 0.00 0.00 0.00 88 1017.2
20260904001006 62 254 0.0 1.0 0.00 0.00 0.00 88 1017.2
20260904000904 62 254 0.0 1.0 0.00 0.00 0.00 88 1017.2
20260904000704 62 254 0.0 1.0 0.00 0.00 0.00 88 1017.2
20260904000604 62 254 0.0 1.0 0.00 0.00 0.00 88 1017.2
20260904000507 62 254 0.0 1.0 0.00 0.00 0.00 88 1017.2
20260904000404 62 254 0.0 1.0 0.00 0.00 0.00 88 1017.3
20260904000304 62 254 0.0 1.0 0.00 0.00 0.00 88 1017.3
20260904000116 63 254 0.0 1.0 0.00 0.00 0.00 88 1017.2
20260904000007 63 254 0.0 1.0 0.00 0.00 0.00 88 1017.2
20260903235907 63 254 0.0 1.0 0.00 0.00 0.00 88 1017.2
20260903235804 63 254 1.0 1.0 0.00 0.00 0.00 88 1017.3
20260903235606 63 254 0.0 0.0 0.00 0.00 0.00 88 1017.3
20260903235505 63 254 0.0 0.0 0.00 0.00 0.00 88 1017.3
20260903235306 63 254 0.0 1.0 0.00 0.00 0.00 88 1017.3
20260903235204 63 254 0.0 1.0 0.00 0.00 0.00 88 1017.3
20260903235104 63 254 0.0 1.0 0.00 0.00 0.00 88 1017.3
20260903234904 63 254 0.0 1.0 0.00 0.00 0.00 88 1017.3
20260903234804 63 254 0.0 1.0 0.00 0.00 0.00 88 1017.3
20260903234708 63 254 0.0 1.0 0.00 0.00 0.00 88 1017.3
20260903234604 63 254 0.0 1.0 0.00 0.00 0.00 88 1017.3
20260903234504 63 254 0.0 1.0 0.00 0.00 0.00 88 1017.2
20260903234407 63 254 0.0 1.0 0.00 0.00 0.00 88 1017.3
20260903234305 63 254 0.0 1.0 0.00 0.00 0.00 88 1017.3
20260903234204 63 254 0.0 1.0 0.00 0.00 0.00 88 1017.2
20260903234107 63 254 1.0 1.0 0.00 0.00 0.00 88 1017.2
20260903234005 63 254 1.0 1.0 0.00 0.00 0.00 88 1017.3
20260903233905 63 254 0.0 1.0 0.00 0.00 0.00 88 1017.2
20260903233704 63 254 0.0 1.0 0.00 0.00 0.00 87 1017.2
20260903233604 63 254 0.0 1.0 0.00 0.00 0.00 87 1017.2
20260903233404 63 254 1.0 1.0 0.00 0.00 0.00 87 1017.2
20260903233206 63 254 0.0 1.0 0.00 0.00 0.00 87 1017.2
20260903233104 63 254 0.0 1.0 0.00 0.00 0.00 87 1017.2
20260903233005 63 254 0.0 1.0 0.00 0.00 0.00 87 1017.2
20260903232907 63 254 0.0 1.0 0.00 0.00 0.00 87 1017.1
20260903232804 64 254 0.0 1.0 0.00 0.00 0.00 87 1017.2
20260903232704 63 254 0.0 1.0 0.00 0.00 0.00 87 1017.2
20260903232504 64 254 0.0 1.0 0.00 0.00 0.00 87 1017.1
20260903232404 64 254 0.0 1.0 0.00 0.00 0.00 87 1017.2
20260903232306 64 254 1.0 1.0 0.00 0.00 0.00 87 1017.1
20260903232204 64 254 0.0 1.0 0.00 0.00 0.00 87 1017.1
20260903232104 64 254 0.0 1.0 0.00 0.00 0.00 87 1017.1
20260903232008 63 254 0.0 1.0 0.00 0.00 0.00 87 1017.1
20260903231904 63 254 0.0 1.0 0.00 0.00 0.00 87 1017.1
20260903231804 63 254 0.0 1.0 0.00 0.00 0.00 87 1017.1
20260903231706 63 254 0.0 1.0 0.00 0.00 0.00 86 1017.1
20260903231505 63 254 0.0 2.0 0.00 0.00 0.00 86 1017.1
20260903231407 63 254 0.0 2.0 0.00 0.00 0.00 86 1017.1
20260903231304 63 254 0.0 3.0 0.00 0.00 0.00 86 1017.1
20260903231107 64 254 0.0 3.0 0.00 0.00 0.00 86 1017.1
20260903231006 64 254 1.0 3.0 0.00 0.00 0.00 86 1017.1
20260903230905 64 254 1.0 3.0 0.00 0.00 0.00 86 1017.1
20260903230807 64 254 0.0 3.0 0.00 0.00 0.00 86 1017.1
20260903230703 64 254 1.0 3.0 0.00 0.00 0.00 86 1017.1
20260903230605 64 254 1.0 3.0 0.00 0.00 0.00 86 1017.1
20260903230506 64 254 1.0 3.0 0.00 0.00 0.00 86 1017.1
20260903230404 64 254 1.0 3.0 0.00 0.00 0.00 86 1017.1
20260903230304 64 254 2.0 3.0 0.00 0.00 0.00 86 1017.1
20260903230207 64 254 1.0 2.0 0.00 0.00 0.00 86 1017.1
20260903230104 64 254 2.0 2.0 0.00 0.00 0.00 86 1017.1
20260903230007 64 254 1.0 2.0 0.00 0.00 0.00 86 1017.1
20260903225907 64 254 1.0 2.0 0.00 0.00 0.00 86 1017.1
20260903225804 64 254 1.0 2.0 0.00 0.00 0.00 86 1017.1
20260903225704 64 254 1.0 2.0 0.00 0.00 0.00 86 1017.1
20260903225607 64 254 1.0 2.0 0.00 0.00 0.00 86 1017.1
20260903225504 64 254 1.0 2.0 0.00 0.00 0.00 86 1017.1
20260903225404 64 254 1.0 2.0 0.00 0.00 0.00 86 1017.1
20260903225307 64 254 1.0 2.0 0.00 0.00 0.00 86 1017.1
20260903225204 64 254 1.0 2.0 0.00 0.00 0.00 86 1017.1
20260903224804 64 254 1.0 2.0 0.00 0.00 0.00 86 1017.1
20260903224604 64 254 1.0 2.0 0.00 0.00 0.00 86 1017.0
20260903224504 64 254 0.0 1.0 0.00 0.00 0.00 86 1017.0
20260903224304 64 254 0.0 1.0 0.00 0.00 0.00 85 1017.0
20260903224106 64 254 0.0 2.0 0.00 0.00 0.00 85 1017.0
20260903223807 64 254 0.0 3.0 0.00 0.00 0.00 85 1017.0
20260903223704 64 254 0.0 3.0 0.00 0.00 0.00 85 1017.0
20260903223604 64 254 1.0 3.0 0.00 0.00 0.00 85 1017.0
20260903223507 64 254 1.0 3.0 0.00 0.00 0.00 85 1017.0
20260903223304 64 254 1.0 3.0 0.00 0.00 0.00 85 1017.0
20260903223208 64 254 1.0 3.0 0.00 0.00 0.00 85 1017.0
20260903223104 64 254 2.0 3.0 0.00 0.00 0.00 85 1017.0
20260903223005 64 254 2.0 3.0 0.00 0.00 0.00 85 1017.0
20260903222907 64 254 2.0 3.0 0.00 0.00 0.00 85 1017.0
20260903222804 64 254 2.0 3.0 0.00 0.00 0.00 85 1017.0
20260903222704 64 254 0.0 0.0 0.00 0.00 0.00 85 1017.0
20260903222607 64 254 0.0 0.0 0.00 0.00 0.00 85 1016.9
20260903222504 64 254 0.0 0.0 0.00 0.00 0.00 85 1017.0
20260903222404 64 254 0.0 0.0 0.00 0.00 0.00 85 1017.0
20260903222306 64 254 0.0 0.0 0.00 0.00 0.00 85 1016.9
20260903222204 64 254 0.0 0.0 0.00 0.00 0.00 85 1017.0
20260903222105 64 254 0.0 0.0 0.00 0.00 0.00 85 1017.0
20260903222009 64 254 0.0 0.0 0.00 0.00 0.00 85 1017.0
20260903221904 64 254 0.0 0.0 0.00 0.00 0.00 85 1016.9
20260903221804 64 254 0.0 0.0 0.00 0.00 0.00 85 1016.9
20260903221707 64 254 0.0 0.0 0.00 0.00 0.00 84 1016.9
20260903221604 64 254 0.0 0.0 0.00 0.00 0.00 84 1017.0
20260903221406 64 254 0.0 0.0 0.00 0.00 0.00 84 1017.0
20260903221304 64 254 0.0 0.0 0.00 0.00 0.00 84 1017.0
20260903221204 64 254 0.0 0.0 0.00 0.00 0.00 84 1016.9
20260903221106 64 254 0.0 0.0 0.00 0.00 0.00 84 1016.9
20260903221005 64 254 0.0 0.0 0.00 0.00 0.00 84 1016.9
20260903220905 64 254 0.0 0.0 0.00 0.00 0.00 84 1016.9
20260903220806 64 254 0.0 0.0 0.00 0.00 0.00 84 1017.0
20260903220604 64 254 0.0 0.0 0.00 0.00 0.00 85 1017.0
20260903220507 64 254 0.0 0.0 0.00 0.00 0.00 85 1017.0
20260903220404 64 254 0.0 0.0 0.00 0.00 0.00 85 1017.0
20260903220304 64 254 0.0 0.0 0.00 0.00 0.00 85 1017.0
20260903220206 64 254 0.0 0.0 0.00 0.00 0.00 85 1017.0
20260903220137 64 254 0.0 0.0 0.00 0.00 0.00 85 1017.0
20260903215907 64 254 0.0 1.0 0.00 0.00 0.00 85 1016.9
20260903215805 65 254 0.0 1.0 0.00 0.00 0.00 85 1016.9
20260903215705 65 254 0.0 1.0 0.00 0.00 0.00 85 1016.9
20260903215505 65 254 0.0 2.0 0.00 0.00 0.00 85 1016.9
20260903215405 65 254 0.0 2.0 0.00 0.00 0.00 85 1016.9
20260903215308 65 254 0.0 2.0 0.00 0.00 0.00 85 1016.9
20260903215205 65 254 0.0 2.0 0.00 0.00 0.00 85 1016.9
20260903215009 65 254 0.0 2.0 0.00 0.00 0.00 85 1016.9
20260903214905 65 254 1.0 2.0 0.00 0.00 0.00 85 1016.9
20260903214805 65 254 0.0 3.0 0.00 0.00 0.00 85 1017.0
20260903214708 65 254 1.0 3.0 0.00 0.00 0.00 85 1016.9
20260903214605 65 254 1.0 3.0 0.00 0.00 0.00 85 1016.9
20260903214407 65 254 1.0 3.0 0.00 0.00 0.00 84 1016.9
20260903214306 65 254 2.0 3.0 0.00 0.00 0.00 84 1016.9
20260903214205 65 254 2.0 3.0 0.00 0.00 0.00 84 1016.9
20260903214108 65 254 1.0 3.0 0.00 0.00 0.00 84 1016.9
20260903214006 65 254 2.0 3.0 0.00 0.00 0.00 84 1016.9
20260903213905 65 254 2.0 3.0 0.00 0.00 0.00 84 1016.9
20260903213808 65 254 2.0 3.0 0.00 0.00 0.00 84 1016.9
20260903213705 65 254 2.0 3.0 0.00 0.00 0.00 84 1016.8
20260903213605 65 254 2.0 3.0 0.00 0.00 0.00 84 1016.9
20260903213405 65 254 1.0 2.0 0.00 0.00 0.00 84 1016.8
20260903213305 65 254 2.0 2.0 0.00 0.00 0.00 84 1016.8
20260903213207 65 254 1.0 2.0 0.00 0.00 0.00 84 1016.8
20260903213105 65 254 1.0 2.0 0.00 0.00 0.00 84 1016.8
20260903213007 65 254 1.0 2.0 0.00 0.00 0.00 84 1016.8
20260903212907 65 254 2.0 2.0 0.00 0.00 0.00 84 1016.8
20260903212805 66 254 1.0 2.0 0.00 0.00 0.00 84 1016.8
20260903212607 66 254 1.0 2.0 0.00 0.00 0.00 84 1016.8
20260903212405 66 254 1.0 1.0 0.00 0.00 0.00 83 1016.9
20260903212308 66 254 0.0 1.0 0.00 0.00 0.00 83 1016.9
20260903212205 66 254 0.0 1.0 0.00 0.00 0.00 83 1016.8
20260903212105 66 254 1.0 1.0 0.00 0.00 0.00 83 1016.9
20260903212008 66 254 0.0 0.0 0.00 0.00 0.00 83 1016.9
20260903211905 66 254 0.0 0.0 0.00 0.00 0.00 83 1016.9
20260903211708 66 254 0.0 0.0 0.00 0.00 0.00 83 1016.9
20260903211606 66 254 0.0 0.0 0.00 0.00 0.00 83 1016.8
20260903211505 66 254 0.0 0.0 0.00 0.00 0.00 83 1016.8
20260903211407 66 254 0.0 0.0 0.00 0.00 0.00 83 1016.8
20260903211305 66 254 0.0 0.0 0.00 0.00 0.00 83 1016.8
20260903211205 66 254 0.0 0.0 0.00 0.00 0.00 82 1016.8
20260903210905 66 254 0.0 0.0 0.00 0.00 0.00 82 1016.8
20260903210808 66 254 0.0 0.0 0.00 0.00 0.00 82 1016.8
20260903210606 66 254 0.0 0.0 0.00 0.00 0.00 82 1016.8
20260903210508 66 254 0.0 0.0 0.00 0.00 0.00 82 1016.7
20260903210404 66 254 0.0 0.0 0.00 0.00 0.00 82 1016.8
20260903210304 66 254 0.0 0.0 0.00 0.00 0.00 82 1016.7
20260903210207 66 254 0.0 0.0 0.00 0.00 0.00 81 1016.7
20260903210009 67 254 0.0 0.0 0.00 0.00 0.00 81 1016.7
20260903205805 67 254 0.0 0.0 0.00 0.00 0.00 81 1016.6
20260903205705 67 254 0.0 1.0 0.00 0.00 0.00 81 1016.6
20260903205607 67 254 0.0 1.0 0.00 0.00 0.00 81 1016.6
20260903205505 67 254 0.0 1.0 0.00 0.00 0.00 81 1016.6
20260903205405 67 254 0.0 1.0 0.00 0.00 0.00 81 1016.6
20260903205308 67 254 0.0 1.0 0.00 0.00 0.00 81 1016.6
20260903205205 67 254 0.0 1.0 0.00 0.00 0.00 81 1016.6
20260903205105 67 254 0.0 1.0 0.00 0.00 0.00 81 1016.6
20260903205009 67 254 0.0 1.0 0.00 0.00 0.00 81 1016.6
20260903204905 67 254 0.0 1.0 0.00 0.00 0.00 81 1016.6
20260903204708 67 254 0.0 1.0 0.00 0.00 0.00 81 1016.6
20260903204605 67 254 1.0 1.0 0.00 0.00 0.00 81 1016.6
20260903204505 67 254 1.0 2.0 0.00 0.00 0.00 81 1016.5
20260903204407 67 254 1.0 2.0 0.00 0.00 0.00 80 1016.6
20260903204305 67 254 0.0 2.0 0.00 0.00 0.00 80 1016.6
20260903204206 67 254 0.0 2.0 0.00 0.00 0.00 80 1016.6
20260903204107 67 254 0.0 2.0 0.00 0.00 0.00 80 1016.6
20260903203905 68 254 0.0 2.0 0.00 0.00 0.00 79 1016.6
20260903203808 68 254 0.0 2.0 0.00 0.00 0.00 79 1016.6
20260903203705 68 254 1.0 2.0 0.00 0.00 0.00 79 1016.6
20260903203509 68 254 0.0 2.0 0.00 0.00 0.00 79 1016.6
20260903203405 68 254 0.0 2.0 0.00 0.00 0.00 79 1016.6
20260903203305 68 254 0.0 2.0 0.00 0.00 0.00 79 1016.6
20260903203105 68 254 0.0 2.0 0.00 0.00 0.00 79 1016.6
20260903203007 68 254 0.0 2.0 0.00 0.00 0.00 79 1016.6
20260903202907 68 254 1.0 2.0 0.00 0.00 0.00 79 1016.6
20260903202705 68 254 0.0 2.0 0.00 0.00 0.00 78 1016.7
20260903202608 68 254 1.0 3.0 0.00 0.00 0.00 78 1016.7
20260903202505 68 254 1.0 3.0 0.00 0.00 0.00 78 1016.7
20260903202307 68 254 1.0 3.0 0.00 0.00 0.00 78 1016.7
20260903202205 68 254 1.0 3.0 0.00 0.00 0.00 78 1016.6
20260903202105 69 254 1.0 3.0 0.00 0.00 0.00 78 1016.6
20260903201905 69 254 1.0 3.0 0.00 0.00 0.00 78 1016.7
20260903201805 69 254 0.0 3.0 0.00 0.00 0.00 78 1016.7
20260903201708 69 254 1.0 3.0 0.00 0.00 0.00 78 1016.7
20260903201605 69 254 2.0 3.0 0.00 0.00 0.00 78 1016.7
20260903201505 69 254 1.0 3.0 0.00 0.00 0.00 78 1016.7
20260903201407 69 254 3.0 3.0 0.00 0.00 0.00 78 1016.6
20260903201206 69 254 2.0 3.0 0.00 0.00 0.00 78 1016.7
20260903201107 69 254 3.0 3.0 0.00 0.00 0.00 78 1016.7
20260903201005 69 254 2.0 3.0 0.00 0.00 0.00 78 1016.7
20260903200905 69 254 3.0 3.0 0.00 0.00 0.00 78 1016.6
20260903200811 69 254 2.0 3.0 0.00 0.00 0.00 78 1016.6
20260903200604 69 254 1.0 3.0 0.00 0.00 0.00 78 1016.7
20260903200305 69 254 1.0 3.0 0.00 0.00 0.00 78 1016.7
20260903200207 69 254 1.0 3.0 0.00 0.00 0.00 77 1016.7
20260903200120 69 254 1.0 3.0 0.00 0.00 0.00 77 1016.6
20260903200008 69 254 1.0 3.0 0.00 0.00 0.00 77 1016.6
20260903195907 69 171 1.0 3.0 0.00 0.00 0.00 77 1016.6
20260903195805 69 171 2.0 3.0 0.00 0.00 0.00 77 1016.6
20260903195705 69 171 1.0 3.0 0.00 0.00 0.00 77 1016.6
20260903195607 69 171 2.0 3.0 0.00 0.00 0.00 77 1016.6
20260903195405 69 171 2.0 3.0 0.00 0.00 0.00 77 1016.6
20260903195309 69 171 1.0 3.0 0.00 0.00 0.00 77 1016.6
20260903195205 69 171 1.0 3.0 0.00 0.00 0.00 76 1016.6
20260903195104 69 171 2.0 3.0 0.00 0.00 0.00 76 1016.7
20260903195009 69 171 2.0 3.0 0.00 0.00 0.00 76 1016.6
20260903194905 69 171 2.0 3.0 0.00 0.00 0.00 76 1016.6
20260903194708 69 171 2.0 3.0 0.00 0.00 0.00 76 1016.6
20260903194605 70 171 1.0 3.0 0.00 0.00 0.00 76 1016.6
20260903194407 70 171 0.0 3.0 0.00 0.00 0.00 76 1016.6
20260903194305 70 171 1.0 3.0 0.00 0.00 0.00 76 1016.6
20260903194108 70 171 1.0 3.0 0.00 0.00 0.00 75 1016.6
20260903194005 70 171 1.0 4.0 0.00 0.00 0.00 75 1016.6
20260903193905 70 171 2.0 4.0 0.00 0.00 0.00 75 1016.6
20260903193807 70 171 2.0 4.0 0.00 0.00 0.00 75 1016.6
20260903193705 70 171 1.0 4.0 0.00 0.00 0.00 75 1016.6
20260903193405 70 171 3.0 4.0 0.00 0.00 0.00 75 1016.5
20260903193305 70 171 3.0 4.0 0.00 0.00 0.00 75 1016.6
20260903193207 70 171 2.0 4.0 0.00 0.00 0.00 75 1016.5
20260903193106 70 171 3.0 4.0 0.00 0.00 0.00 74 1016.5
20260903193007 71 171 3.0 4.0 0.00 0.00 0.00 74 1016.5
20260903192908 71 171 3.0 3.0 0.00 0.00 0.00 74 1016.5
20260903192805 71 171 3.0 3.0 0.00 0.00 0.00 74 1016.5
20260903192705 71 171 2.0 3.0 0.00 0.00 0.00 74 1016.5
20260903192608 71 171 2.0 3.0 0.00 0.00 0.00 74 1016.5
20260903192505 71 171 1.0 2.0 0.00 0.00 0.00 74 1016.4
20260903192405 71 171 2.0 2.0 0.00 0.00 0.00 73 1016.4
20260903192307 71 171 2.0 2.0 0.00 0.00 0.00 73 1016.5
20260903192206 71 171 1.0 2.0 0.00 0.00 0.00 73 1016.4
20260903192105 71 171 1.0 2.0 0.00 0.00 0.00 73 1016.4
20260903192009 71 171 1.0 2.0 0.00 0.00 0.00 73 1016.4
20260903191805 71 171 1.0 2.0 0.00 0.00 0.00 72 1016.5
20260903191605 71 171 1.0 2.0 0.00 0.00 0.00 72 1016.5
20260903191506 72 171 0.0 2.0 0.00 0.00 0.00 72 1016.5
20260903191408 72 171 2.0 2.0 0.00 0.00 0.00 72 1016.5
20260903191305 72 171 2.0 2.0 0.00 0.00 0.00 72 1016.5
20260903191208 72 171 1.0 2.0 0.00 0.00 0.00 72 1016.4
20260903191108 72 171 0.0 2.0 0.00 0.00 0.00 72 1016.4
20260903191005 72 171 0.0 2.0 0.00 0.00 0.00 72 1016.4
20260903190905 72 171 1.0 2.0 0.00 0.00 0.00 71 1016.5
20260903190705 72 171 1.0 2.0 0.00 0.00 0.00 71 1016.4
20260903190605 72 171 1.0 2.0 0.00 0.00 0.00 71 1016.4
20260903190404 72 171 1.0 2.0 0.00 0.00 0.00 71 1016.4
20260903190305 72 171 1.0 3.0 0.00 0.00 0.00 71 1016.4
20260903190207 72 171 1.0 3.0 0.00 0.00 0.00 71 1016.4
20260903190106 72 171 0.0 3.0 0.00 0.00 0.00 71 1016.4
20260903190008 72 171 0.0 3.0 0.00 0.00 0.00 71 1016.4
20260903185908 72 171 1.0 3.0 0.00 0.00 0.00 71 1016.4
20260903185705 72 171 1.0 3.0 0.00 0.00 0.00 70 1016.4
20260903185608 72 171 1.0 3.0 0.00 0.00 0.00 70 1016.4
20260903185505 73 171 0.0 3.0 0.00 0.00 0.00 70 1016.3
20260903185307 73 178 2.0 3.0 0.00 0.00 0.00 70 1016.4
20260903185205 73 178 3.0 3.0 0.00 0.00 0.00 70 1016.4
20260903185105 73 178 2.0 2.0 0.00 0.00 0.00 70 1016.3
20260903185009 73 178 2.0 3.0 0.00 0.00 0.00 70 1016.3
20260903184905 73 178 2.0 4.0 0.00 0.00 0.00 69 1016.3
20260903184804 73 178 1.0 4.0 0.00 0.00 0.00 69 1016.4
20260903184707 73 178 1.0 4.0 0.00 0.00 0.00 69 1016.4
20260903184604 73 178 1.0 4.0 0.00 0.00 0.00 69 1016.4
20260903184506 73 178 0.0 4.0 0.00 0.00 0.00 69 1016.4
20260903184407 73 178 1.0 4.0 0.00 0.00 0.00 69 1016.4
20260903184305 73 178 1.0 4.0 0.00 0.00 0.00 69 1016.4
20260903184205 73 178 1.0 4.0 0.00 0.00 0.00 69 1016.3
20260903184107 74 178 2.0 4.0 0.00 0.00 0.00 69 1016.4
20260903184007 74 178 2.0 4.0 0.00 0.00 0.00 69 1016.3
20260903183905 74 178 3.0 4.0 0.00 0.00 0.00 69 1016.3
20260903183807 74 178 3.0 4.0 0.00 0.00 0.00 69 1016.3
20260903183705 74 178 3.0 4.0 0.00 0.00 0.00 69 1016.3
20260903183605 74 168 3.0 4.0 0.00 0.00 0.00 69 1016.3
20260903183508 74 168 2.0 4.0 0.00 0.00 0.00 68 1016.2
20260903183405 74 168 1.0 4.0 0.00 0.00 0.00 68 1016.2
20260903183305 74 168 1.0 4.0 0.00 0.00 0.00 68 1016.3
20260903183207 75 168 1.0 4.0 0.00 0.00 0.00 68 1016.2
20260903183104 75 168 1.0 4.0 0.00 0.00 0.00 68 1016.2
20260903183006 75 168 1.0 4.0 0.00 0.00 0.00 68 1016.2
20260903182907 75 168 2.0 4.0 0.00 0.00 0.00 68 1016.2
20260903182607 75 168 3.0 3.0 0.00 0.00 0.00 67 1016.2
20260903182505 76 107 0.0 2.0 0.00 0.00 0.00 67 1016.2
20260903182404 76 107 1.0 2.0 0.00 0.00 0.00 67 1016.2
20260903182307 76 107 2.0 2.0 0.00 0.00 0.00 66 1016.2
20260903182105 76 107 1.0 3.0 0.00 0.00 0.00 66 1016.2
20260903182009 76 107 1.0 3.0 0.00 0.00 0.00 66 1016.2
20260903181904 77 107 2.0 5.0 0.00 0.00 0.00 65 1016.1
20260903181805 77 107 1.0 5.0 0.00 0.00 0.00 65 1016.1
20260903181707 77 107 1.0 5.0 0.00 0.00 0.00 64 1016.2
20260903181604 77 107 2.0 5.0 0.00 0.00 0.00 64 1016.1
20260903181506 77 107 1.0 5.0 0.00 0.00 0.00 64 1016.1
20260903181407 77 107 2.0 5.0 0.00 0.00 0.00 63 1016.1
20260903181205 78 107 3.0 5.0 0.00 0.00 0.00 63 1016.1
20260903181107 78 102 2.0 5.0 0.00 0.00 0.00 63 1016.1
20260903181006 78 102 3.0 5.0 0.00 0.00 0.00 62 1016.1
20260903180905 78 120 2.0 5.0 0.00 0.00 0.00 62 1016.1
20260903180807 78 112 3.0 5.0 0.00 0.00 0.00 62 1016.1
20260903180605 79 98 2.0 5.0 0.00 0.00 0.00 62 1016.1
20260903180508 79 98 5.0 5.0 0.00 0.00 0.00 61 1016.1
20260903180405 79 92 3.0 5.0 0.00 0.00 0.00 61 1016.1
20260903180207 79 88 3.0 5.0 0.00 0.00 0.00 60 1016.0
20260903175908 80 90 5.0 7.0 0.00 0.00 0.00 59 1016.0
20260903175805 80 93 5.0 7.0 0.00 0.00 0.00 59 1016.0
20260903175705 80 86 3.0 7.0 0.00 0.00 0.00 58 1016.0
20260903175607 80 80 5.0 7.0 0.00 0.00 0.00 58 1016.0
20260903175505 80 75 4.0 7.0 0.00 0.00 0.00 58 1016.0
20260903175404 81 80 3.0 7.0 0.00 0.00 0.00 58 1015.9
20260903175307 81 82 5.0 7.0 0.00 0.00 0.00 58 1015.9
20260903175205 81 78 5.0 7.0 0.00 0.00 0.00 58 1015.9
20260903175105 81 75 4.0 7.0 0.00 0.00 0.00 57 1015.9
20260903175008 81 77 4.0 7.0 0.00 0.00 0.00 57 1015.9
20260903174905 81 77 4.0 7.0 0.00 0.00 0.00 56 1015.9
20260903174805 81 74 5.0 7.0 0.00 0.00 0.00 56 1015.9
20260903174708 81 68 5.0 7.0 0.00 0.00 0.00 56 1015.9
20260903174604 81 69 7.0 7.0 0.00 0.00 0.00 56 1015.9
20260903174505 82 74 4.0 7.0 0.00 0.00 0.00 56 1015.9
20260903174408 82 86 5.0 7.0 0.00 0.00 0.00 55 1015.9
20260903174206 82 78 5.0 7.0 0.00 0.00 0.00 55 1015.9
20260903174107 82 79 5.0 5.0 0.00 0.00 0.00 55 1015.8
20260903174006 82 75 5.0 6.0 0.00 0.00 0.00 54 1015.8
20260903173904 82 77 4.0 6.0 0.00 0.00 0.00 54 1015.8
20260903173808 83 86 6.0 6.0 0.00 0.00 0.00 54 1015.9
20260903173704 83 86 6.0 6.0 0.00 0.00 0.00 54 1015.8
20260903173604 83 84 5.0 6.0 0.00 0.00 0.00 54 1015.8
20260903173508 83 87 5.0 6.0 0.00 0.00 0.00 54 1015.8
20260903173304 83 107 4.0 6.0 0.00 0.00 0.00 53 1015.8
20260903173208 83 97 6.0 6.0 0.00 0.00 0.00 53 1015.8
20260903173104 84 98 3.0 6.0 0.00 0.00 0.00 54 1015.8
20260903173005 84 101 5.0 6.0 0.00 0.00 0.00 53 1015.8
20260903172907 84 99 5.0 6.0 0.00 0.00 0.00 53 1015.8
20260903172805 84 83 3.0 8.0 0.00 0.00 0.00 53 1015.7
20260903172705 84 109 4.0 9.0 0.00 0.00 0.00 52 1015.7
20260903172505 84 80 3.0 9.0 0.00 0.00 0.00 52 1015.7
20260903172405 84 90 3.0 9.0 0.00 0.00 0.00 53 1015.7
20260903172204 85 68 5.0 9.0 0.00 0.00 0.00 53 1015.7
20260903172008 85 74 4.0 9.0 0.00 0.00 0.00 53 1015.6
20260903171905 85 89 5.0 9.0 0.00 0.00 0.00 53 1015.6
20260903171805 85 84 7.0 9.0 0.00 0.00 0.00 53 1015.6
20260903171707 85 92 9.0 9.0 0.00 0.00 0.00 53 1015.6
20260903171505 85 88 5.0 8.0 0.00 0.00 0.00 53 1015.6
20260903171305 85 88 6.0 8.0 0.00 0.00 0.00 52 1015.6
20260903171205 85 74 8.0 8.0 0.00 0.00 0.00 52 1015.6
20260903171108 86 38 4.0 8.0 0.00 0.00 0.00 52 1015.6
20260903171006 86 73 4.0 9.0 0.00 0.00 0.00 52 1015.6
20260903170807 86 88 6.0 9.0 0.00 0.00 0.00 52 1015.6
20260903170605 86 61 3.0 10.0 0.00 0.00 0.00 52 1015.6
20260903170508 86 35 2.0 10.0 0.00 0.00 0.00 52 1015.6
20260903170405 86 74 5.0 10.0 0.00 0.00 0.00 52 1015.6
20260903170305 86 51 5.0 10.0 0.00 0.00 0.00 51 1015.6
20260903170207 86 73 5.0 11.0 0.00 0.00 0.00 51 1015.6
20260903170106 86 76 5.0 11.0 0.00 0.00 0.00 51 1015.6
20260903170008 86 85 9.0 11.0 0.00 0.00 0.00 51 1015.5
20260903165907 87 78 8.0 11.0 0.00 0.00 0.00 50 1015.6
20260903165805 87 91 7.0 11.0 0.00 0.00 0.00 50 1015.6
20260903165705 87 42 5.0 11.0 0.00 0.00 0.00 50 1015.6
20260903165607 87 80 9.0 11.0 0.00 0.00 0.00 50 1015.5
20260903165505 87 92 8.0 11.0 0.00 0.00 0.00 50 1015.5
20260903165405 87 82 6.0 11.0 0.00 0.00 0.00 50 1015.5
20260903165308 87 75 7.0 11.0 0.00 0.00 0.00 50 1015.5
20260903165105 87 80 6.0 11.0 0.00 0.00 0.00 50 1015.5
20260903165008 87 110 8.0 11.0 0.00 0.00 0.00 50 1015.5
20260903164905 87 77 5.0 11.0 0.00 0.00 0.00 50 1015.5
20260903164805 87 72 4.0 11.0 0.00 0.00 0.00 50 1015.5
20260903164707 88 74 7.0 11.0 0.00 0.00 0.00 50 1015.6
20260903164605 88 58 4.0 11.0 0.00 0.00 0.00 50 1015.5
20260903164505 88 75 9.0 11.0 0.00 0.00 0.00 50 1015.5
20260903164407 88 65 4.0 10.0 0.00 0.00 0.00 50 1015.5
20260903164304 88 63 3.0 11.0 0.00 0.00 0.00 51 1015.5
20260903164205 88 107 7.0 14.0 0.00 0.00 0.00 50 1015.5
20260903164107 88 112 4.0 14.0 0.00 0.00 0.00 50 1015.5
20260903164006 88 113 3.0 14.0 0.00 0.00 0.00 50 1015.5
20260903163905 88 110 7.0 14.0 0.00 0.00 0.00 50 1015.4
20260903163807 88 116 8.0 14.0 0.00 0.00 0.00 50 1015.4
20260903163705 88 113 4.0 14.0 0.00 0.00 0.00 50 1015.4
20260903163605 88 89 8.0 14.0 0.00 0.00 0.00 49 1015.4
20260903163405 88 104 7.0 14.0 0.00 0.00 0.00 49 1015.4
20260903163306 89 101 8.0 14.0 0.00 0.00 0.00 49 1015.3
20260903163207 89 93 13.0 14.0 0.00 0.00 0.00 48 1015.4
20260903163005 89 122 5.0 12.0 0.00 0.00 0.00 48 1015.4
20260903162907 89 103 9.0 11.0 0.00 0.00 0.00 48 1015.4
20260903162805 89 107 9.0 11.0 0.00 0.00 0.00 48 1015.3
20260903162706 89 87 8.0 11.0 0.00 0.00 0.00 48 1015.3
20260903162608 90 82 7.0 11.0 0.00 0.00 0.00 48 1015.3
20260903162505 90 80 7.0 11.0 0.00 0.00 0.00 48 1015.3
20260903162406 90 78 10.0 10.0 0.00 0.00 0.00 48 1015.3
20260903162205 90 105 5.0 10.0 0.00 0.00 0.00 47 1015.2
20260903162105 90 84 7.0 10.0 0.00 0.00 0.00 48 1015.1
20260903162008 90 99 8.0 10.0 0.00 0.00 0.00 47 1015.1
20260903161904 90 109 7.0 9.0 0.00 0.00 0.00 47 1015.2
20260903161804 90 123 5.0 9.0 0.00 0.00 0.00 46 1015.2
20260903161708 91 90 8.0 9.0 0.00 0.00 0.00 46 1015.2
20260903161605 91 101 7.0 9.0 0.00 0.00 0.00 45 1015.2
20260903161505 91 126 5.0 9.0 0.00 0.00 0.00 43 1015.2
20260903161408 91 108 8.0 9.0 0.00 0.00 0.00 41 1015.2
20260903161306 91 94 2.0 7.0 0.00 0.00 0.00 39 1015.2
20260903161205 91 74 1.0 7.0 0.00 0.00 0.00 39 1015.2
20260903161107 91 74 2.0 7.0 0.00 0.00 0.00 40 1015.2
20260903160904 91 72 5.0 7.0 0.00 0.00 0.00 40 1015.2
20260903160807 91 105 3.0 7.0 0.00 0.00 0.00 40 1015.3
20260903160705 91 80 3.0 7.0 0.00 0.00 0.00 40 1015.3
20260903160508 91 28 3.0 5.0 0.00 0.00 0.00 40 1015.3
20260903160405 91 59 2.0 4.0 0.00 0.00 0.00 39 1015.4
20260903160305 91 59 2.0 4.0 0.00 0.00 0.00 39 1015.4
20260903160119 91 43 3.0 6.0 0.00 0.00 0.00 40 1015.4
20260903160008 91 39 3.0 6.0 0.00 0.00 0.00 40 1015.4
20260903155907 91 5 2.0 6.0 0.00 0.00 0.00 39 1015.4
20260903155805 91 5 0.0 6.0 0.00 0.00 0.00 40 1015.5
20260903155704 91 5 0.0 6.0 0.00 0.00 0.00 40 1015.5
20260903155608 91 5 2.0 6.0 0.00 0.00 0.00 40 1015.5
20260903155404 91 5 2.0 6.0 0.00 0.00 0.00 39 1015.5
20260903155308 91 5 4.0 6.0 0.00 0.00 0.00 41 1015.6
20260903155206 91 336 3.0 6.0 0.00 0.00 0.00 41 1015.6
20260903155105 91 355 5.0 6.0 0.00 0.00 0.00 40 1015.6
20260903155008 91 337 3.0 6.0 0.00 0.00 0.00 41 1015.6
20260903154903 91 331 3.0 6.0 0.00 0.00 0.00 41 1015.6
20260903154707 91 26 3.0 6.0 0.00 0.00 0.00 40 1015.6
20260903154605 91 9 3.0 6.0 0.00 0.00 0.00 39 1015.6
20260903154505 91 20 3.0 6.0 0.00 0.00 0.00 39 1015.6
20260903154407 92 34 3.0 6.0 0.00 0.00 0.00 40 1015.6
20260903154305 92 11 3.0 6.0 0.00 0.00 0.00 40 1015.6
20260903154107 92 280 1.0 8.0 0.00 0.00 0.00 39 1015.7
20260903154006 92 327 2.0 8.0 0.00 0.00 0.00 38 1015.7
20260903153904 92 313 5.0 8.0 0.00 0.00 0.00 38 1015.7
20260903153808 91 355 4.0 8.0 0.00 0.00 0.00 40 1015.7
20260903153704 91 322 6.0 8.0 0.00 0.00 0.00 41 1015.7
20260903153605 91 326 3.0 8.0 0.00 0.00 0.00 41 1015.7
20260903153508 91 333 3.0 8.0 0.00 0.00 0.00 40 1015.7
20260903153405 91 31 2.0 8.0 0.00 0.00 0.00 40 1015.7
20260903153305 91 31 4.0 8.0 0.00 0.00 0.00 40 1015.7
20260903153208 91 17 4.0 8.0 0.00 0.00 0.00 39 1015.7
20260903153106 91 15 3.0 6.0 0.00 0.00 0.00 38 1015.7
20260903152908 91 55 4.0 6.0 0.00 0.00 0.00 41 1015.7
20260903152804 91 32 5.0 7.0 0.00 0.00 0.00 40 1015.6
20260903152704 91 70 4.0 7.0 0.00 0.00 0.00 39 1015.7
20260903152505 91 40 6.0 6.0 0.00 0.00 0.00 39 1015.7
20260903152405 91 47 5.0 5.0 0.00 0.00 0.00 40 1015.6
20260903152307 91 58 2.0 4.0 0.00 0.00 0.00 41 1015.7
20260903152205 91 63 2.0 3.0 0.00 0.00 0.00 41 1015.6
20260903152104 91 71 0.0 5.0 0.00 0.00 0.00 41 1015.6
20260903152008 91 71 0.0 5.0 0.00 0.00 0.00 39 1015.6
20260903151905 92 71 1.0 5.0 0.00 0.00 0.00 39 1015.6
20260903151804 92 71 2.0 5.0 0.00 0.00 0.00 40 1015.6
20260903151707 92 71 2.0 5.0 0.00 0.00 0.00 38 1015.6
20260903151605 92 71 2.0 5.0 0.00 0.00 0.00 38 1015.6
20260903151408 92 46 2.0 6.0 0.00 0.00 0.00 39 1015.7
20260903151305 92 17 1.0 6.0 0.00 0.00 0.00 38 1015.7
20260903151205 92 17 1.0 6.0 0.00 0.00 0.00 39 1015.7
20260903151107 92 32 3.0 7.0 0.00 0.00 0.00 39 1015.8
20260903151005 92 82 5.0 7.0 0.00 0.00 0.00 38 1015.8
20260903150905 92 159 0.0 7.0 0.00 0.00 0.00 38 1015.8
20260903150808 93 46 2.0 9.0 0.00 0.00 0.00 39 1015.8
20260903150705 93 5 2.0 9.0 0.00 0.00 0.00 39 1015.8
20260903150507 93 327 5.0 9.0 0.00 0.00 0.00 38 1015.8
20260903150404 93 313 2.0 9.0 0.00 0.00 0.00 39 1015.8
20260903150305 93 333 4.0 9.0 0.00 0.00 0.00 39 1015.8
20260903150105 93 336 5.0 9.0 0.00 0.00 0.00 40 1015.8
20260903150008 93 328 7.0 9.0 0.00 0.00 0.00 40 1015.8
20260903145907 93 14 3.0 9.0 0.00 0.00 0.00 41 1015.8
20260903145805 93 355 6.0 9.0 0.00 0.00 0.00 39 1015.8
20260903145704 93 355 2.0 7.0 0.00 0.00 0.00 38 1015.8
20260903145607 93 347 3.0 7.0 0.00 0.00 0.00 38 1015.8
20260903145505 92 26 2.0 7.0 0.00 0.00 0.00 38 1015.8
20260903145405 92 40 5.0 7.0 0.00 0.00 0.00 38 1015.8
20260903145307 92 327 3.0 7.0 0.00 0.00 0.00 38 1015.8
20260903145205 92 315 3.0 7.0 0.00 0.00 0.00 38 1015.7
20260903145104 92 74 2.0 7.0 0.00 0.00 0.00 36 1015.8
20260903145010 92 216 1.0 7.0 0.00 0.00 0.00 38 1015.8
20260903144904 92 251 2.0 7.0 0.00 0.00 0.00 37 1015.8
20260903144804 92 240 2.0 7.0 0.00 0.00 0.00 37 1015.9
20260903144707 93 242 4.0 7.0 0.00 0.00 0.00 38 1015.8
20260903144604 93 227 4.0 7.0 0.00 0.00 0.00 39 1015.9
20260903144108 93 346 4.0 8.0 0.00 0.00 0.00 39 1015.9
20260903144006 93 296 2.0 8.0 0.00 0.00 0.00 38 1015.8
20260903143808 93 336 3.0 8.0 0.00 0.00 0.00 41 1015.9
20260903143705 93 338 6.0 8.0 0.00 0.00 0.00 40 1015.9
20260903143604 93 323 4.0 8.0 0.00 0.00 0.00 40 1015.8
20260903143404 93 326 2.0 8.0 0.00 0.00 0.00 39 1015.9
20260903143305 93 293 1.0 8.0 0.00 0.00 0.00 41 1015.9
20260903143207 93 325 6.0 8.0 0.00 0.00 0.00 41 1015.9
20260903143104 93 348 7.0 8.0 0.00 0.00 0.00 40 1015.8
20260903143006 93 46 3.0 5.0 0.00 0.00 0.00 40 1015.8
20260903142908 93 327 3.0 5.0 0.00 0.00 0.00 40 1015.9
20260903142805 93 300 1.0 5.0 0.00 0.00 0.00 40 1015.9
20260903142705 93 198 1.0 5.0 0.00 0.00 0.00 41 1015.9
20260903142607 93 198 1.0 5.0 0.00 0.00 0.00 39 1015.9
20260903142404 93 198 2.0 5.0 0.00 0.00 0.00 40 1015.9
20260903142308 93 209 3.0 5.0 0.00 0.00 0.00 40 1015.9
20260903142204 93 242 3.0 7.0 0.00 0.00 0.00 39 1015.9
20260903142105 93 223 2.0 7.0 0.00 0.00 0.00 39 1016.0
20260903142009 92 10 0.0 7.0 0.00 0.00 0.00 39 1016.0
20260903141905 92 10 0.0 7.0 0.00 0.00 0.00 39 1016.0
20260903141805 92 5 2.0 7.0 0.00 0.00 0.00 39 1015.9
20260903141707 92 109 1.0 8.0 0.00 0.00 0.00 39 1016.0
20260903141605 92 89 1.0 8.0 0.00 0.00 0.00 40 1016.0
20260903141505 92 58 2.0 8.0 0.00 0.00 0.00 40 1016.0
20260903141407 92 71 4.0 8.0 0.00 0.00 0.00 39 1015.9
20260903141305 92 71 2.0 8.0 0.00 0.00 0.00 38 1015.9
20260903141205 92 60 5.0 8.0 0.00 0.00 0.00 40 1015.9
20260903141005 92 17 2.0 8.0 0.00 0.00 0.00 38 1016.0
20260903140904 92 39 2.0 8.0 0.00 0.00 0.00 42 1016.0
20260903140808 92 30 5.0 8.0 0.00 0.00 0.00 40 1016.0
20260903140704 92 28 7.0 8.0 0.00 0.00 0.00 40 1016.0
20260903140604 92 15 5.0 7.0 0.00 0.00 0.00 39 1016.0
20260903140507 92 309 2.0 7.0 0.00 0.00 0.00 41 1016.0
20260903140305 92 65 2.0 7.0 0.00 0.00 0.00 39 1016.0
20260903140207 92 346 1.0 7.0 0.00 0.00 0.00 39 1016.0
20260903140120 93 28 5.0 7.0 0.00 0.00 0.00 40 1016.0
20260903140008 92 30 6.0 7.0 0.00 0.00 0.00 40 1016.0
20260903135907 92 297 1.0 7.0 0.00 0.00 0.00 38 1016.0
20260903135805 93 292 3.0 8.0 0.00 0.00 0.00 40 1016.0
20260903135704 92 233 4.0 8.0 0.00 0.00 0.00 38 1016.0
20260903135505 92 329 3.0 8.0 0.00 0.00 0.00 40 1016.0
20260903135405 92 346 5.0 10.0 0.00 0.00 0.00 40 1016.0
20260903135205 92 75 2.0 10.0 0.00 0.00 0.00 38 1016.0
20260903135105 92 28 3.0 10.0 0.00 0.00 0.00 38 1016.0
20260903134905 92 317 4.0 10.0 0.00 0.00 0.00 40 1016.1
20260903134804 92 348 7.0 10.0 0.00 0.00 0.00 39 1016.0
20260903134707 92 298 3.0 10.0 0.00 0.00 0.00 39 1016.0
20260903134605 92 273 5.0 10.0 0.00 0.00 0.00 42 1016.1
20260903134506 92 325 6.0 10.0 0.00 0.00 0.00 42 1016.1
20260903134407 92 334 7.0 10.0 0.00 0.00 0.00 42 1016.1
20260903134305 91 360 7.0 8.0 0.00 0.00 0.00 41 1016.1
20260903134204 91 14 4.0 8.0 0.00 0.00 0.00 41 1016.1
20260903134108 91 313 1.0 8.0 0.00 0.00 0.00 41 1016.1
20260903133904 91 350 5.0 8.0 0.00 0.00 0.00 42 1016.1
20260903133807 91 114 1.0 8.0 0.00 0.00 0.00 40 1016.1
20260903133704 91 115 1.0 8.0 0.00 0.00 0.00 40 1016.1
20260903133606 91 129 3.0 8.0 0.00 0.00 0.00 41 1016.1
20260903133508 91 110 2.0 8.0 0.00 0.00 0.00 40 1016.1
20260903133305 91 69 5.0 11.0 0.00 0.00 0.00 41 1016.1
20260903133207 91 52 2.0 11.0 0.00 0.00 0.00 40 1016.1
20260903133105 91 37 5.0 11.0 0.00 0.00 0.00 41 1016.1
20260903133005 91 41 6.0 11.0 0.00 0.00 0.00 40 1016.0
20260903132805 91 28 3.0 11.0 0.00 0.00 0.00 41 1016.1
20260903132705 91 26 4.0 11.0 0.00 0.00 0.00 41 1016.1
20260903132608 92 77 5.0 11.0 0.00 0.00 0.00 39 1016.1
20260903132505 92 71 3.0 11.0 0.00 0.00 0.00 39 1016.1
20260903132404 92 50 8.0 11.0 0.00 0.00 0.00 38 1016.0
20260903132307 92 19 10.0 10.0 0.00 0.00 0.00 39 1016.1
20260903132204 92 24 6.0 7.0 0.00 0.00 0.00 41 1016.1
20260903132104 92 32 2.0 7.0 0.00 0.00 0.00 39 1016.1
20260903132010 92 64 3.0 9.0 0.00 0.00 0.00 39 1016.1
20260903131905 92 24 6.0 9.0 0.00 0.00 0.00 40 1016.2
20260903131805 92 15 6.0 9.0 0.00 0.00 0.00 40 1016.2
20260903131706 92 18 7.0 9.0 0.00 0.00 0.00 44 1016.2
20260903131605 92 52 0.0 9.0 0.00 0.00 0.00 41 1016.3
20260903131506 92 82 1.0 9.0 0.00 0.00 0.00 41 1016.2
20260903131407 92 40 2.0 9.0 0.00 0.00 0.00 41 1016.3
20260903131304 92 322 2.0 9.0 0.00 0.00 0.00 42 1016.3
20260903131006 91 349 7.0 9.0 0.00 0.00 0.00 44 1016.4
20260903130905 91 327 7.0 8.0 0.00 0.00 0.00 43 1016.3
20260903130807 91 348 7.0 8.0 0.00 0.00 0.00 42 1016.3
20260903130706 91 26 1.0 8.0 0.00 0.00 0.00 41 1016.3
20260903130609 91 26 1.0 9.0 0.00 0.00 0.00 43 1016.3
20260903130404 91 70 1.0 9.0 0.00 0.00 0.00 41 1016.3
20260903130304 91 88 3.0 9.0 0.00 0.00 0.00 42 1016.3
20260903130207 91 139 2.0 9.0 0.00 0.00 0.00 42 1016.3
20260903130104 91 22 3.0 9.0 0.00 0.00 0.00 42 1016.3
20260903130007 91 58 1.0 9.0 0.00 0.00 0.00 42 1016.2
20260903125907 91 71 8.0 9.0 0.00 0.00 0.00 45 1016.2
20260903125804 91 65 8.0 9.0 0.00 0.00 0.00 43 1016.2
20260903125704 91 76 7.0 9.0 0.00 0.00 0.00 43 1016.2
20260903125607 91 45 8.0 9.0 0.00 0.00 0.00 44 1016.2
20260903125505 91 355 6.0 9.0 0.00 0.00 0.00 44 1016.2
20260903125405 91 44 7.0 9.0 0.00 0.00 0.00 42 1016.2
20260903125307 91 31 5.0 9.0 0.00 0.00 0.00 42 1016.2
20260903125204 91 21 5.0 9.0 0.00 0.00 0.00 41 1016.2
20260903125104 91 48 2.0 9.0 0.00 0.00 0.00 41 1016.2
20260903124904 91 24 2.0 4.0 0.00 0.00 0.00 42 1016.2
20260903124804 91 78 1.0 4.0 0.00 0.00 0.00 40 1016.2
20260903124707 91 163 0.0 6.0 0.00 0.00 0.00 41 1016.2
20260903124604 91 176 2.0 7.0 0.00 0.00 0.00 42 1016.2
20260903124407 91 260 1.0 9.0 0.00 0.00 0.00 42 1016.2
20260903124304 91 240 2.0 9.0 0.00 0.00 0.00 41 1016.2
20260903124205 91 217 1.0 9.0 0.00 0.00 0.00 41 1016.3
20260903123705 91 327 3.0 9.0 0.00 0.00 0.00 43 1016.4
20260903123605 91 335 5.0 9.0 0.00 0.00 0.00 43 1016.4
20260903123507 91 355 7.0 9.0 0.00 0.00 0.00 43 1016.5
20260903123405 91 333 5.0 9.0 0.00 0.00 0.00 43 1016.5
20260903123305 91 302 7.0 12.0 0.00 0.00 0.00 44 1016.4
20260903123207 91 242 3.0 12.0 0.00 0.00 0.00 45 1016.5
20260903123104 91 22 4.0 12.0 0.00 0.00 0.00 42 1016.4
20260903123005 91 42 6.0 12.0 0.00 0.00 0.00 42 1016.5
20260903122907 91 14 7.0 12.0 0.00 0.00 0.00 42 1016.5
20260903122805 91 61 5.0 12.0 0.00 0.00 0.00 43 1016.5
20260903122704 91 36 1.0 12.0 0.00 0.00 0.00 44 1016.5
20260903122607 90 34 4.0 12.0 0.00 0.00 0.00 46 1016.6
20260903122504 90 19 6.0 12.0 0.00 0.00 0.00 45 1016.5
20260903122404 90 339 7.0 12.0 0.00 0.00 0.00 43 1016.6
20260903122205 90 344 3.0 9.0 0.00 0.00 0.00 43 1016.5
20260903122104 90 320 3.0 9.0 0.00 0.00 0.00 44 1016.5
20260903122010 90 57 3.0 9.0 0.00 0.00 0.00 43 1016.5
20260903121904 90 337 6.0 9.0 0.00 0.00 0.00 44 1016.5
20260903121804 90 9 2.0 10.0 0.00 0.00 0.00 43 1016.5
20260903121707 90 47 2.0 10.0 0.00 0.00 0.00 44 1016.6
20260903121605 90 325 5.0 10.0 0.00 0.00 0.00 43 1016.5
20260903121305 90 15 3.0 10.0 0.00 0.00 0.00 44 1016.5
20260903121204 90 78 3.0 10.0 0.00 0.00 0.00 44 1016.4
20260903121108 90 76 7.0 10.0 0.00 0.00 0.00 44 1016.5
20260903121005 90 19 4.0 10.0 0.00 0.00 0.00 45 1016.5
20260903120905 90 25 7.0 10.0 0.00 0.00 0.00 46 1016.4
20260903120807 90 17 5.0 8.0 0.00 0.00 0.00 46 1016.5
20260903120705 90 124 4.0 9.0 0.00 0.00 0.00 45 1016.5
20260903120606 90 303 5.0 9.0 0.00 0.00 0.00 45 1016.5
20260903120507 90 344 2.0 9.0 0.00 0.00 0.00 44 1016.4
20260903120404 90 262 2.0 9.0 0.00 0.00 0.00 44 1016.5
20260903120304 90 248 1.0 9.0 0.00 0.00 0.00 44 1016.5
20260903120208 90 251 3.0 9.0 0.00 0.00 0.00 43 1016.5
20260903120119 90 261 1.0 9.0 0.00 0.00 0.00 46 1016.5
20260903120007 90 261 1.0 9.0 0.00 0.00 0.00 46 1016.5
20260903115908 90 285 4.0 9.0 0.00 0.00 0.00 45 1016.5
20260903115804 90 266 6.0 9.0 0.00 0.00 0.00 46 1016.5
20260903115704 90 330 8.0 9.0 0.00 0.00 0.00 45 1016.4
20260903115404 90 224 1.0 9.0 0.00 0.00 0.00 44 1016.6
20260903115307 90 273 3.0 9.0 0.00 0.00 0.00 43 1016.6
20260903115205 90 326 3.0 9.0 0.00 0.00 0.00 45 1016.6
20260903115105 90 279 2.0 9.0 0.00 0.00 0.00 45 1016.6
20260903115011 90 296 3.0 9.0 0.00 0.00 0.00 44 1016.6
20260903114904 90 279 2.0 9.0 0.00 0.00 0.00 44 1016.6
20260903114707 90 333 4.0 7.0 0.00 0.00 0.00 45 1016.6
20260903114505 90 355 5.0 7.0 0.00 0.00 0.00 46 1016.7
20260903114407 90 327 7.0 7.0 0.00 0.00 0.00 45 1016.6
20260903114108 90 314 0.0 5.0 0.00 0.00 0.00 44 1016.6
20260903114009 90 240 0.0 8.0 0.00 0.00 0.00 46 1016.6
20260903113905 90 240 1.0 8.0 0.00 0.00 0.00 44 1016.6
20260903113807 90 277 2.0 8.0 0.00 0.00 0.00 44 1016.7
20260903113703 90 317 1.0 8.0 0.00 0.00 0.00 44 1016.7
20260903113604 90 54 1.0 8.0 0.00 0.00 0.00 43 1016.7
20260903113507 90 84 3.0 8.0 0.00 0.00 0.00 45 1016.7
20260903113305 90 5 3.0 8.0 0.00 0.00 0.00 45 1016.7
20260903113208 90 350 4.0 8.0 0.00 0.00 0.00 45 1016.7
20260903113104 90 340 3.0 8.0 0.00 0.00 0.00 48 1016.7
20260903113007 90 32 6.0 8.0 0.00 0.00 0.00 47 1016.7
20260903112907 89 355 4.0 8.0 0.00 0.00 0.00 47 1016.8
20260903112704 89 327 4.0 8.0 0.00 0.00 0.00 46 1016.7
20260903112607 89 288 4.0 8.0 0.00 0.00 0.00 47 1016.7
20260903112505 89 331 5.0 9.0 0.00 0.00 0.00 48 1016.8
20260903112404 89 341 6.0 9.0 0.00 0.00 0.00 49 1016.8
20260903112205 89 329 2.0 9.0 0.00 0.00 0.00 45 1016.8
20260903112106 89 241 4.0 9.0 0.00 0.00 0.00 45 1016.8
20260903112010 89 328 1.0 9.0 0.00 0.00 0.00 46 1016.8
20260903111904 89 273 3.0 9.0 0.00 0.00 0.00 47 1016.9
20260903111804 89 325 5.0 9.0 0.00 0.00 0.00 46 1016.9
20260903111707 89 298 7.0 9.0 0.00 0.00 0.00 46 1016.8
20260903111604 89 271 5.0 9.0 0.00 0.00 0.00 47 1016.8
20260903111505 88 350 6.0 9.0 0.00 0.00 0.00 49 1016.8
20260903111305 88 348 6.0 9.0 0.00 0.00 0.00 49 1016.9
20260903111205 88 30 1.0 10.0 0.00 0.00 0.00 46 1016.9
20260903111107 88 30 0.0 10.0 0.00 0.00 0.00 46 1016.9
20260903111006 88 30 0.0 11.0 0.00 0.00 0.00 46 1017.0
20260903110904 88 30 3.0 11.0 0.00 0.00 0.00 46 1017.0
20260903110808 88 34 5.0 11.0 0.00 0.00 0.00 45 1016.9
20260903110704 88 34 6.0 11.0 0.00 0.00 0.00 45 1016.9
20260903110507 89 24 4.0 11.0 0.00 0.00 0.00 45 1017.0
20260903110207 89 26 7.0 11.0 0.00 0.00 0.00 44 1017.0
20260903110105 89 41 7.0 11.0 0.00 0.00 0.00 45 1017.0
20260903110008 89 17 5.0 12.0 0.00 0.00 0.00 47 1017.1
20260903105907 89 30 8.0 12.0 0.00 0.00 0.00 46 1017.1
20260903105804 89 308 8.0 12.0 0.00 0.00 0.00 46 1017.1
20260903105705 89 5 5.0 12.0 0.00 0.00 0.00 48 1017.1
20260903105607 89 349 4.0 12.0 0.00 0.00 0.00 46 1017.2
20260903105505 89 360 3.0 12.0 0.00 0.00 0.00 47 1017.2
20260903105404 89 22 3.0 12.0 0.00 0.00 0.00 46 1017.2
20260903105307 89 346 3.0 12.0 0.00 0.00 0.00 47 1017.3
20260903105204 89 339 9.0 12.0 0.00 0.00 0.00 48 1017.2
20260903104904 89 355 8.0 10.0 0.00 0.00 0.00 49 1017.2
20260903104806 88 340 5.0 9.0 0.00 0.00 0.00 49 1017.3
20260903104706 88 314 4.0 9.0 0.00 0.00 0.00 49 1017.4
20260903104505 88 269 6.0 8.0 0.00 0.00 0.00 49 1017.3
20260903104406 88 320 6.0 7.0 0.00 0.00 0.00 50 1017.3
20260903104205 88 219 5.0 9.0 0.00 0.00 0.00 49 1017.3
20260903104107 88 327 3.0 9.0 0.00 0.00 0.00 49 1017.4
20260903104005 88 325 2.0 9.0 0.00 0.00 0.00 49 1017.4
20260903103904 88 325 5.0 9.0 0.00 0.00 0.00 50 1017.4
20260903103807 88 309 1.0 9.0 0.00 0.00 0.00 50 1017.4
20260903103605 88 360 1.0 9.0 0.00 0.00 0.00 48 1017.5
20260903103508 88 360 3.0 9.0 0.00 0.00 0.00 50 1017.5
20260903103404 88 332 6.0 9.0 0.00 0.00 0.00 50 1017.5
20260903103305 88 321 6.0 9.0 0.00 0.00 0.00 50 1017.5
20260903103207 88 308 2.0 8.0 0.00 0.00 0.00 53 1017.5
20260903103104 87 5 5.0 9.0 0.00 0.00 0.00 51 1017.5
20260903103005 87 316 5.0 10.0 0.00 0.00 0.00 51 1017.5
20260903102908 87 343 5.0 12.0 0.00 0.00 0.00 51 1017.6
20260903102705 87 271 3.0 12.0 0.00 0.00 0.00 51 1017.6
20260903102607 87 247 3.0 12.0 0.00 0.00 0.00 50 1017.6
20260903102505 88 288 1.0 12.0 0.00 0.00 0.00 52 1017.6
20260903102405 88 300 3.0 12.0 0.00 0.00 0.00 50 1017.6
20260903102307 88 287 6.0 12.0 0.00 0.00 0.00 51 1017.6
20260903102204 88 301 3.0 12.0 0.00 0.00 0.00 53 1017.7
20260903102105 88 316 9.0 12.0 0.00 0.00 0.00 52 1017.7
20260903102010 87 306 9.0 12.0 0.00 0.00 0.00 54 1017.7
20260903101904 87 298 8.0 12.0 0.00 0.00 0.00 51 1017.8
20260903101804 87 276 6.0 8.0 0.00 0.00 0.00 50 1017.7
20260903101604 87 259 0.0 9.0 0.00 0.00 0.00 50 1017.7
20260903101407 87 250 2.0 9.0 0.00 0.00 0.00 50 1017.7
20260903101305 87 263 0.0 9.0 0.00 0.00 0.00 50 1017.7
20260903101204 87 255 3.0 9.0 0.00 0.00 0.00 51 1017.8
20260903101107 87 289 3.0 9.0 0.00 0.00 0.00 51 1017.8
20260903101005 87 316 4.0 9.0 0.00 0.00 0.00 52 1017.9
20260903100904 87 313 4.0 9.0 0.00 0.00 0.00 52 1017.8
20260903100705 87 299 8.0 9.0 0.00 0.00 0.00 52 1017.8
20260903100604 87 11 2.0 7.0 0.00 0.00 0.00 54 1017.8
20260903100507 87 12 3.0 7.0 0.00 0.00 0.00 53 1017.8
20260903100305 87 263 2.0 8.0 0.00 0.00 0.00 52 1017.8
20260903100130 87 294 3.0 9.0 0.00 0.00 0.00 51 1017.8
20260903095704 87 293 3.0 9.0 0.00 0.00 0.00 53 1017.8